GFSNE_500_spd_000.txt.gz
Wind_Speed
35 35 36 38 37 38 39 37 41 38 31 37 38 41 38 38 40 40 41 43 43 46 49 49 47 51 54 55 54 54 50 47 45 42 38 35 32 31
34 36 38 37 40 43 46 44 43 41 35 34 39 40 40 41 43 43 42 44 47 46 47 52 53 51 54 55 57 55 55 52 49 46 43 40 37 35
34 33 36 39 44 43 46 44 42 42 38 35 38 42 40 42 43 44 44 44 43 44 48 50 54 57 54 56 57 58 57 57 54 50 48 45 43 40
35 33 40 44 43 40 47 43 41 43 45 44 42 40 40 41 41 42 45 47 47 48 48 47 53 57 60 57 59 59 60 58 58 56 53 50 48 44
35 36 45 40 40 45 43 41 43 46 48 50 44 35 35 39 39 40 41 43 46 49 51 52 50 57 60 62 59 61 60 61 58 58 57 54 51 49
31 40 42 40 41 42 43 45 45 46 46 46 41 38 37 38 38 39 39 44 45 50 52 53 53 52 60 62 63 61 62 61 62 59 60 57 55 52
41 46 40 43 42 45 46 46 47 45 46 44 45 41 38 41 40 39 39 39 44 52 56 53 51 52 53 61 64 65 63 62 62 60 60 61 59 56
42 45 43 43 45 45 46 47 47 47 44 43 40 40 35 35 38 40 39 38 40 48 53 51 56 50 52 56 63 67 64 64 63 63 61 61 61 59
49 47 45 44 47 47 47 46 43 43 39 39 42 37 34 34 38 41 43 41 42 46 52 50 57 53 52 54 61 65 65 65 64 63 59 60 61 62
50 45 45 45 47 45 46 46 42 37 39 38 35 35 33 35 38 39 40 38 36 42 46 54 53 48 52 54 57 63 67 63 63 64 59 64 60 58
44 42 44 43 44 45 44 41 38 35 33 31 33 34 34 37 40 45 49 36 32 34 42 52 46 41 45 49 55 60 64 61 64 65 62 56 59 58
43 43 44 44 44 43 40 38 36 33 30 29 31 33 36 38 44 47 54 41 38 32 31 42 40 39 45 44 52 57 62 60 65 65 64 61 59 59
42 43 40 41 40 38 38 36 35 33 30 28 29 31 34 38 45 45 54 43 34 19 23 28 34 38 39 44 52 58 58 59 63 61 61 63 59 56
38 39 40 39 37 35 36 35 33 33 33 31 31 32 32 36 42 48 44 39 20 17 18 17 21 31 38 43 49 51 53 55 60 53 62 60 55 55
38 38 39 37 34 34 34 32 33 35 32 30 29 30 32 34 36 40 35 34 27 15 15 12 15 21 35 42 49 46 51 52 57 53 57 57 48 41
36 37 36 33 31 31 31 30 29 25 19 21 24 27 30 34 33 38 31 27 15 15 16 13 15 20 27 38 44 45 46 45 52 53 54 54 53 46
36 34 33 31 32 31 30 27 24 22 20 21 22 25 28 30 30 40 28 24 14 14 16 16 17 25 27 34 41 47 42 43 46 52 51 49 48 44
34 32 32 32 32 31 28 26 25 24 23 25 26 26 27 26 27 31 30 19 15 13 14 17 21 24 31 31 40 45 41 42 42 48 51 49 52 53
31 32 31 31 30 29 26 25 25 22 20 22 24 24 25 24 23 25 34 18 9 17 11 14 18 24 29 35 41 49 36 39 43 46 49 48 47 47
32 32 31 31 29 27 27 26 25 24 22 22 22 22 21 22 22 25 24 27 15 16 20 16 16 14 28 37 34 43 25 28 45 39 42 46 48 48
32 32 32 31 29 28 28 27 27 22 22 21 21 21 21 22 21 21 21 23 26 11 14 18 15 15 25 26 35 37 22 22 47 44 46 48 51 49
32 32 32 30 29 27 26 26 25 23 21 20 20 21 21 20 20 19 21 18 21 11 4 10 3 10 14 23 30 32 27 26 31 47 44 47 46 53
33 32 29 26 24 23 22 22 21 21 20 20 21 20 20 19 19 19 18 19 17 18 15 9 8 8 14 17 15 18 23 21 25 38 47 46 47 45

GFSNE_500_spd_003.txt.gz
Wind_Speed
24 26 29 28 28 29 34 35 37 37 31 33 36 40 41 42 42 41 40 40 41 41 43 45 45 46 49 51 53 53 54 54 51 47 44 39 36 35
26 27 27 29 28 33 31 32 33 37 40 37 34 39 43 45 47 46 44 45 45 45 45 46 48 49 50 52 53 56 56 56 56 53 50 46 42 39
25 29 28 30 29 33 36 32 34 36 36 38 39 41 44 49 48 48 48 48 49 49 49 48 48 51 52 53 55 56 59 58 58 57 55 52 49 45
26 24 21 23 28 33 34 36 36 40 43 47 45 45 46 48 48 45 43 42 44 49 51 52 51 51 53 55 55 58 59 61 60 59 58 56 53 50
30 30 26 33 37 38 40 38 37 41 45 52 48 48 46 48 46 45 44 42 44 46 49 51 53 53 54 53 56 58 61 62 62 61 61 59 58 54
32 33 34 32 40 45 40 40 38 42 50 51 49 48 45 48 48 47 43 44 45 44 45 49 50 51 54 57 55 57 61 64 64 64 63 62 61 59
34 35 36 40 46 52 47 42 40 44 49 48 46 46 49 49 48 45 41 39 41 45 46 49 51 54 55 56 55 55 59 64 66 67 65 63 63 62
34 35 45 43 52 53 47 40 42 45 46 47 45 45 49 45 41 36 36 35 33 39 44 48 56 53 54 52 51 54 57 62 68 68 68 66 65 64
41 45 44 41 48 44 42 43 43 47 45 45 44 45 46 35 33 34 35 35 36 39 46 45 58 57 55 51 47 51 54 57 65 69 69 68 65 65
48 40 33 38 39 40 41 44 46 47 47 45 43 43 42 34 34 34 33 35 36 43 50 48 53 55 55 52 49 47 52 53 57 68 70 69 67 65
32 27 32 31 40 42 41 41 46 45 46 43 42 43 39 35 35 34 36 40 42 45 41 38 46 49 50 50 52 50 52 54 54 63 69 68 67 64
43 48 35 39 39 40 41 43 43 44 42 44 43 42 38 37 38 39 40 41 47 41 37 35 29 36 40 44 46 49 53 53 53 57 65 68 66 67
44 42 39 43 40 40 43 44 43 41 40 42 41 40 40 40 41 41 40 43 49 40 34 24 23 24 22 30 40 46 51 55 55 56 64 68 66 68
35 40 40 40 41 43 42 40 38 37 41 39 39 38 38 36 37 34 35 37 48 43 19 21 19 21 19 23 32 39 41 43 54 56 64 64 63 65
37 41 41 40 42 40 37 36 35 37 38 35 32 30 29 27 30 31 32 33 41 41 23 19 20 16 12 18 25 28 36 40 46 55 59 60 61 64
41 41 40 40 40 36 34 33 34 36 34 29 30 31 29 27 28 29 29 29 35 37 23 19 16 14 12 17 25 25 33 40 45 51 55 58 57 60
42 39 40 38 35 32 32 33 34 33 31 29 30 30 30 30 30 29 28 30 37 33 20 20 15 12 12 13 25 28 28 31 38 47 50 52 52 55
39 38 36 34 33 32 33 33 32 30 28 26 28 27 27 26 26 26 25 29 31 35 24 18 17 13 20 20 25 30 28 33 37 41 47 49 53 49
37 34 36 35 33 33 32 33 31 30 30 27 28 28 26 23 23 23 24 26 24 33 22 20 10 15 20 26 25 29 30 33 32 41 42 50 52 50
37 36 34 32 31 32 34 33 31 30 29 26 25 26 24 21 21 21 22 23 22 29 21 16 11 13 20 23 29 30 30 36 48 34 47 49 50 49
33 32 30 29 29 30 31 31 30 28 26 24 22 22 21 20 19 19 19 20 22 23 20 13 12 12 22 22 23 25 29 33 42 28 41 42 47 45
27 25 25 26 27 29 30 29 24 23 22 21 20 20 20 19 19 16 17 18 19 18 25 9 7 5 5 6 15 18 24 35 29 37 34 39 48 50
24 24 25 25 25 25 25 22 19 19 18 18 18 19 19 18 18 15 15 16 16 17 15 22 11 6 2 6 8 6 19 32 33 27 34 35 47 49

GFSNE_500_spd_006.txt.gz
Wind_Speed
27 29 27 27 26 24 22 24 26 26 29 32 31 32 33 37 42 47 47 44 40 43 43 46 48 48 46 45 47 49 51 50 50 49 48 44 41 38
28 30 29 29 29 26 26 22 25 27 28 31 33 36 38 43 48 49 53 52 48 42 45 45 48 50 51 50 49 50 52 55 55 53 52 51 47 43
27 30 30 29 27 23 22 24 28 30 31 35 35 37 40 47 52 54 56 53 44 41 43 49 50 51 53 53 53 53 53 56 58 58 56 55 53 50
30 30 31 32 30 26 33 32 32 35 37 36 37 38 44 49 53 56 54 52 47 45 41 43 47 48 51 53 53 56 57 57 59 61 61 58 57 55
32 32 34 35 35 37 33 32 38 39 41 40 37 40 48 52 55 53 50 49 50 50 47 46 48 48 49 51 55 56 59 59 60 62 63 62 60 59
36 32 32 35 39 37 36 41 47 48 49 40 38 44 50 54 55 50 48 47 50 49 47 45 47 51 51 49 51 56 59 61 61 62 65 65 64 61
39 35 35 36 39 41 39 38 41 38 40 39 43 47 52 55 52 49 44 50 45 44 44 43 44 45 49 50 50 53 58 62 63 63 65 67 66 65
40 43 43 41 43 44 45 47 46 50 44 45 43 50 52 51 49 48 46 46 40 41 40 36 38 40 43 49 56 55 54 59 64 64 65 68 68 67
41 39 40 43 44 40 38 37 44 45 46 45 43 50 50 49 49 49 47 43 40 40 38 36 40 38 45 53 60 55 47 50 58 64 65 67 70 68
39 37 34 25 33 37 40 40 44 46 45 47 48 50 51 51 50 48 43 39 40 39 37 38 43 49 56 58 59 56 51 45 51 57 63 66 68 70
23 32 34 37 41 45 41 44 48 48 48 49 51 51 52 50 50 42 40 39 40 40 39 40 45 50 50 49 53 55 54 48 49 52 59 64 65 68
33 33 39 43 41 48 46 49 51 50 50 53 53 52 48 47 46 42 43 41 39 36 38 43 45 46 30 28 41 43 42 49 48 49 55 59 63 68
40 43 40 39 39 41 47 50 51 51 52 54 49 45 46 45 42 38 36 34 32 32 39 44 43 28 26 23 31 37 36 43 50 51 53 57 59 66
45 39 39 39 41 45 47 50 51 51 51 46 42 42 41 37 36 34 32 30 32 36 35 41 42 22 20 22 21 28 31 39 50 54 56 55 54 59
40 41 45 45 44 44 49 47 48 45 41 39 40 38 36 36 35 35 33 32 32 35 38 42 38 20 21 20 18 25 22 35 38 46 52 51 51 55
41 45 48 44 43 44 40 42 41 37 36 36 35 33 33 35 33 32 30 29 31 30 35 40 36 24 18 17 15 16 25 27 32 38 45 51 53 54
44 45 40 38 38 39 38 38 36 34 34 33 31 31 31 32 32 32 30 27 28 27 28 34 29 21 18 17 15 18 17 17 23 29 36 39 46 54
40 38 39 39 38 38 38 37 34 32 31 32 31 32 31 30 30 29 28 26 27 27 28 34 24 16 20 18 19 23 29 24 30 32 34 39 42 49
40 42 43 43 39 39 38 35 34 31 30 30 30 31 29 29 28 26 26 25 25 25 26 32 21 16 15 24 16 24 36 25 22 25 30 38 43 48
35 34 34 34 35 36 35 34 33 30 29 29 28 27 26 27 24 23 23 23 23 23 23 29 22 18 13 16 23 23 25 27 32 15 38 35 42 47
29 29 30 32 33 33 32 31 30 29 27 26 23 22 24 24 22 21 21 21 20 21 23 22 20 15 14 18 23 28 27 26 24 28 26 25 42 47
30 32 31 29 28 29 29 28 27 25 22 21 20 20 20 21 20 20 19 19 19 20 19 18 26 13 10 7 16 25 27 27 28 28 31 29 42 43
33 32 29 27 26 24 23 23 22 19 18 19 20 21 22 23 22 21 20 19 19 19 18 19 17 26 9 9 10 5 23 24 21 22 28 41 29 47

GFSNE_500_spd_009.txt.gz
Wind_Speed
31 31 31 29 28 29 31 31 31 32 32 32 30 31 28 29 29 32 33 32 43 46 48 48 41 38 40 43 48 47 46 46 46 48 49 47 44 42
31 31 32 31 29 29 31 30 31 28 26 30 30 33 34 34 35 36 41 41 45 48 50 51 49 43 40 46 48 52 50 49 49 50 51 51 50 48
31 33 33 32 31 31 30 30 27 27 32 32 32 34 35 38 39 39 42 43 49 53 55 53 51 42 40 46 53 53 53 52 52 51 53 54 54 53
31 33 34 32 33 34 34 34 39 41 39 36 36 39 41 41 41 43 46 51 53 55 57 50 45 42 41 42 49 53 54 54 54 54 53 56 57 56
38 34 33 33 34 34 37 39 40 42 43 42 45 46 44 44 44 48 52 52 55 54 51 48 43 45 46 49 48 49 48 53 56 56 56 56 59 60
35 40 36 35 33 35 36 36 39 42 44 44 41 38 49 53 54 54 54 56 58 52 47 45 44 44 46 47 48 50 52 51 54 57 58 58 59 61
35 39 44 38 35 40 42 44 45 45 42 46 50 48 54 60 57 57 52 55 54 48 47 46 46 45 43 41 44 46 50 53 57 60 62 61 61 61
37 38 42 41 41 41 41 43 42 42 40 45 42 43 49 59 56 56 54 52 49 47 48 45 46 43 41 40 39 41 46 51 56 61 62 65 63 62
38 34 33 37 42 39 33 35 34 36 44 45 44 50 53 56 57 56 55 53 49 46 48 45 45 43 39 38 40 44 47 52 53 58 59 60 65 66
37 35 35 38 31 35 34 40 43 42 46 51 48 52 53 55 56 56 52 52 48 47 48 46 44 43 43 41 43 48 55 57 57 52 55 58 62 67
38 40 38 33 35 37 41 44 46 46 51 53 54 54 55 56 57 56 53 50 46 44 47 45 44 43 44 40 43 56 64 64 62 55 52 53 57 64
40 39 40 41 44 49 53 46 43 47 50 55 57 56 58 56 52 48 44 43 40 39 37 35 37 38 40 36 49 56 49 46 41 43 48 54 52 60
45 45 40 42 45 46 47 48 48 52 56 57 57 57 52 50 47 45 40 39 40 36 35 35 37 36 43 47 37 31 32 36 37 34 44 53 52 57
45 40 45 44 44 46 49 49 53 54 53 51 49 48 44 40 39 37 37 38 38 37 34 38 39 39 40 44 26 21 31 31 30 33 41 52 55 58
43 47 44 42 47 50 53 54 51 47 45 45 46 41 38 37 35 34 35 35 33 34 33 34 36 39 42 39 23 21 18 24 26 27 38 51 56 58
45 43 47 48 51 50 48 44 43 43 42 43 41 37 34 33 34 34 34 34 34 32 33 34 34 40 43 40 27 22 22 20 14 23 35 46 55 54
46 46 49 49 47 44 42 41 42 43 43 42 38 34 33 33 32 33 34 33 32 30 31 32 33 35 42 36 26 23 20 27 20 17 27 39 48 51
46 47 45 43 43 43 44 41 40 39 38 38 35 34 33 32 31 32 32 31 30 30 30 30 33 31 36 33 32 24 21 18 24 22 25 34 38 44
40 40 40 40 37 37 39 39 39 38 37 35 34 33 33 31 29 30 28 28 28 29 29 30 32 31 36 30 27 27 23 25 36 25 30 28 30 39
38 38 36 35 35 35 36 36 35 35 34 33 32 32 31 28 27 26 26 26 26 27 28 29 30 29 37 28 25 22 27 25 25 37 23 30 28 32
32 32 32 35 37 35 34 33 33 33 34 33 31 28 25 24 24 23 23 23 24 25 26 27 28 29 31 29 24 26 26 25 21 21 29 25 29 36
30 32 31 33 32 31 31 30 31 29 27 24 23 22 22 23 24 25 25 24 24 25 25 25 27 27 26 30 19 18 19 24 24 21 19 23 18 26
27 30 30 29 30 28 28 27 26 24 23 22 22 22 23 24 26 26 26 26 25 25 25 26 25 24 21 33 19 17 12 20 24 26 23 21 16 9

GFSNE_500_spd_012.txt.gz
Wind_Speed
24 25 28 30 31 33 32 32 30 29 30 33 32 32 28 29 31 27 29 33 33 32 33 35 39 41 42 47 48 44 35 38 40 43 43 43 50 47
26 29 29 31 32 34 34 35 34 32 31 32 31 31 34 33 35 35 32 32 35 39 35 36 40 43 48 49 51 54 47 37 42 46 48 47 48 52
33 30 33 33 31 32 34 34 37 37 33 32 32 37 40 41 43 41 42 40 41 39 43 48 49 50 52 51 54 52 49 47 39 47 54 51 52 51
31 31 31 33 36 31 33 35 37 39 39 39 41 41 42 45 45 45 44 44 45 45 48 53 52 54 53 56 56 50 43 43 41 50 59 58 54 54
35 35 35 32 31 33 33 36 37 38 42 44 45 44 44 47 45 43 42 48 52 54 55 57 57 55 55 59 57 48 47 46 48 50 58 56 58 57
38 37 37 37 34 38 41 40 38 37 40 45 44 46 46 43 45 48 46 50 49 53 56 53 51 52 52 54 47 46 49 49 50 54 60 59 57 61
40 41 40 42 40 39 34 35 36 41 46 38 36 34 34 39 39 42 47 48 52 57 55 57 53 53 52 51 45 46 49 48 49 49 58 64 60 58
42 40 39 41 40 33 29 36 39 36 35 34 40 38 45 49 50 53 53 52 54 53 57 55 52 55 53 48 46 46 46 47 48 50 50 61 62 60
40 38 39 38 35 38 40 41 34 33 33 37 45 48 49 52 53 54 53 56 55 53 53 51 45 46 45 45 46 45 44 45 46 49 50 51 58 61
40 38 40 41 34 37 41 43 41 45 46 47 50 52 49 52 54 55 58 58 54 48 45 49 44 41 43 44 46 46 45 47 50 52 54 53 53 55
40 38 39 37 39 42 43 44 44 50 53 51 50 48 50 53 58 60 59 55 49 45 43 42 40 39 40 40 39 40 41 44 50 54 58 59 55 57
40 41 37 38 41 46 47 45 44 49 51 50 52 53 55 58 54 51 46 45 42 38 41 40 38 40 39 38 36 36 40 43 50 58 63 65 56 62
35 37 35 46 46 47 46 48 51 51 51 53 56 57 52 46 46 46 40 38 38 34 38 37 34 37 37 35 33 35 40 44 58 57 46 45 38 47
43 43 44 47 46 45 49 49 49 51 54 54 50 45 45 45 42 39 38 37 37 37 37 38 39 39 38 37 34 33 36 49 41 38 30 34 39 40
45 44 45 45 43 46 53 53 51 52 49 45 46 45 43 44 41 39 37 37 37 36 36 36 37 35 37 39 38 37 45 34 31 29 25 28 28 37
45 45 40 45 44 49 51 51 49 46 46 47 44 43 41 39 38 37 37 36 35 34 35 37 36 35 36 38 40 41 43 32 28 32 33 27 30 28
39 39 42 46 47 48 47 44 43 41 39 38 40 39 37 35 34 34 33 34 34 33 32 34 34 33 36 39 37 44 39 29 28 27 28 30 24 25
40 40 42 45 44 44 40 37 39 40 40 40 39 37 34 32 33 33 31 31 31 30 31 32 31 28 33 36 41 44 40 34 28 27 20 18 18 25
38 37 38 37 35 35 35 38 40 42 41 39 37 34 33 32 31 30 28 27 28 28 29 30 30 29 30 30 32 44 34 30 22 21 22 27 19 23
37 35 33 31 32 33 34 36 37 37 35 33 33 32 29 27 26 24 24 25 26 27 28 29 28 29 31 31 31 40 30 25 19 23 18 18 26 24
30 28 26 27 30 31 31 32 32 31 31 31 29 26 24 23 22 22 24 27 28 29 29 29 28 29 29 31 29 40 33 30 26 18 17 16 12 22
25 26 27 27 29 28 28 29 29 27 28 27 25 25 23 23 24 25 26 28 28 29 29 29 27 30 28 28 30 35 39 26 25 15 16 12 7 23
24 24 26 24 24 25 26 28 27 25 24 25 25 24 22 22 24 26 28 30 30 30 31 30 28 28 28 27 27 32 37 29 22 13 16 14 12 11

GFSNE_500_spd_015.txt.gz
Wind_Speed
26 22 22 25 29 26 25 27 28 29 32 32 31 31 30 28 23 24 26 27 28 30 29 27 28 29 28 28 29 33 40 42 38 37 34 32 37 36
26 27 27 26 28 27 26 28 29 28 28 31 34 34 34 32 32 30 29 32 35 34 33 34 33 32 33 35 37 42 44 44 43 42 40 34 40 38
30 28 30 31 28 28 26 28 30 31 31 32 34 37 37 38 38 40 42 42 39 37 36 36 37 38 42 41 42 44 48 47 47 47 45 43 40 37
31 31 34 34 35 32 28 28 31 35 37 33 35 35 37 41 45 46 48 50 49 47 41 41 42 43 46 50 50 53 52 47 48 50 50 51 50 42
31 32 35 38 37 37 33 30 29 34 34 33 33 33 34 43 45 50 49 48 46 42 44 41 46 46 48 48 50 50 51 49 50 53 55 56 53 49
34 37 39 40 34 38 34 32 32 32 30 31 32 32 32 27 30 38 33 36 34 40 41 45 49 52 54 54 55 53 54 56 58 55 56 57 57 54
38 41 42 40 35 37 34 32 32 32 34 34 33 32 32 34 35 38 39 41 43 48 50 50 52 53 55 57 58 52 48 49 51 56 59 59 56 57
44 42 40 36 34 35 33 34 33 34 36 38 39 32 36 42 44 47 49 51 46 49 51 51 54 56 58 56 50 48 48 49 49 49 52 56 58 58
47 40 36 36 35 34 34 33 31 35 34 41 42 45 46 49 52 50 47 47 50 52 53 52 54 51 42 40 43 45 45 48 49 52 53 53 55 56
43 35 35 37 37 38 35 30 36 37 42 44 45 44 48 50 49 49 51 51 52 51 49 47 43 40 39 41 43 44 46 47 47 48 50 52 53 57
42 40 37 36 38 36 43 33 38 44 46 46 47 50 49 49 52 53 52 50 46 42 41 40 35 35 37 39 41 42 44 45 45 43 45 49 55 58
41 39 39 39 41 43 39 39 52 47 47 48 52 52 50 54 55 51 44 42 42 34 35 36 36 37 35 38 40 40 41 42 45 47 47 48 51 54
41 41 41 42 43 43 45 47 48 46 47 54 49 55 54 54 49 46 44 40 37 33 35 36 37 39 38 36 35 37 38 39 40 42 45 48 54 59
46 45 44 44 45 45 44 45 45 49 53 52 51 54 51 47 46 42 39 37 35 34 33 35 36 37 38 39 37 34 35 37 39 37 47 53 55 57
43 44 43 43 44 45 43 41 49 51 53 53 49 46 42 39 39 39 38 36 34 34 35 36 36 37 38 38 35 32 34 33 36 44 46 37 36 37
43 46 47 47 45 42 42 43 47 47 46 44 41 39 40 41 40 38 35 33 32 33 35 34 33 36 35 35 35 32 31 33 38 46 28 29 32 36
45 46 42 40 38 40 39 41 42 38 35 37 39 40 39 38 36 33 30 29 29 29 30 30 31 32 33 35 33 35 29 37 39 46 30 23 30 31
41 38 36 38 38 38 36 33 33 35 37 38 39 38 34 30 29 28 28 27 27 27 26 27 28 29 31 34 39 33 31 30 39 36 32 21 25 25
38 37 36 35 33 29 30 32 32 34 34 35 37 35 31 28 26 25 23 23 23 24 25 27 30 31 29 29 32 39 33 31 37 28 28 17 18 22
35 32 31 30 28 29 30 31 31 30 31 33 32 29 27 24 24 23 21 22 23 26 29 30 31 31 31 30 29 33 35 34 40 25 23 19 20 19
30 29 26 26 25 27 28 26 26 28 30 30 29 27 26 26 25 25 24 25 26 28 32 32 32 33 33 30 30 30 33 37 41 32 19 16 19 18
29 25 28 27 24 24 24 25 25 26 29 29 27 26 26 26 25 25 26 28 31 33 34 33 31 30 31 28 28 28 30 32 36 37 28 15 18 16
27 26 25 22 20 23 24 24 25 27 28 27 26 26 27 27 28 29 30 31 30 30 30 28 27 25 26 27 26 25 27 31 34 32 28 15 18 15

GFSNE_500_spd_021.txt.gz
Wind_Speed
18 19 16 17 18 21 23 24 22 19 17 17 22 24 21 18 20 24 24 25 25 25 27 28 27 27 28 28 28 28 28 29 30 28 27 29 27 22
20 22 21 19 21 24 28 29 27 25 24 24 24 23 26 25 24 23 24 26 29 30 32 34 35 36 37 37 36 36 36 35 32 31 31 29 31 31
20 23 25 24 22 25 31 32 30 28 27 28 29 27 27 29 26 22 24 27 28 30 33 34 33 36 39 40 41 42 44 46 43 40 36 36 38 37
17 22 28 31 29 28 29 27 27 28 27 29 30 30 29 27 23 21 23 23 25 28 28 27 30 29 28 30 33 35 38 42 42 47 42 41 39 37
21 27 31 33 32 31 28 28 28 29 27 28 31 35 32 34 28 24 24 28 28 29 30 31 32 34 36 38 39 39 39 39 38 37 44 43 42 40
22 26 32 33 29 27 26 30 27 27 29 30 31 35 34 32 25 23 27 32 30 33 38 42 45 43 43 44 44 47 48 48 49 49 46 48 48 48
25 27 31 29 28 28 26 27 29 27 30 33 33 32 30 31 29 33 33 35 38 40 42 45 47 46 47 44 42 42 44 48 51 54 52 52 54 54
26 27 31 30 29 29 31 32 35 32 32 35 33 34 36 35 35 34 38 41 45 48 49 48 52 53 50 51 49 46 46 46 47 50 54 57 59 59
30 30 31 31 32 35 36 38 39 39 36 32 39 36 38 36 43 41 46 49 45 43 47 49 55 58 53 51 50 51 49 47 47 47 48 51 56 59
29 32 33 33 37 39 39 39 41 40 41 36 39 39 36 39 42 53 56 57 51 52 52 53 50 49 47 47 47 47 46 47 46 44 42 43 45 49
30 34 34 35 39 41 40 40 40 39 39 38 38 42 40 42 47 52 52 51 52 49 47 46 44 43 44 45 45 44 43 43 44 45 46 46 45 46
32 34 36 41 43 43 42 42 42 39 41 44 46 48 44 46 48 49 50 49 46 43 43 42 42 42 40 41 44 44 44 46 47 48 47 47 48 48
31 36 41 43 43 42 42 43 44 44 44 44 46 47 47 49 46 43 43 45 46 46 46 46 44 43 44 43 40 40 42 43 44 44 43 45 48 50
34 40 44 43 40 40 42 43 45 43 43 43 44 46 44 40 40 41 41 43 46 46 44 43 40 40 38 37 37 35 37 40 40 39 41 44 47 46
40 44 49 46 41 41 42 44 44 40 39 40 40 39 39 39 38 38 40 42 42 40 38 37 36 33 32 32 31 31 33 35 35 36 38 42 43 43
47 50 51 44 42 42 42 41 37 36 36 35 36 36 37 37 37 38 38 40 39 36 36 35 32 30 28 29 30 31 33 33 33 34 39 40 40 44
49 56 54 40 41 42 41 35 33 35 36 36 34 33 36 37 37 36 36 36 35 33 32 33 33 32 30 31 32 35 36 37 38 38 39 39 39 43
42 34 29 35 40 39 36 32 34 34 34 31 30 31 32 34 35 35 35 36 35 33 31 31 31 32 34 37 42 42 41 41 40 40 42 38 37 44
37 33 32 35 38 36 33 32 33 31 29 26 27 29 31 34 34 34 35 36 35 34 34 33 33 33 33 34 36 40 40 38 39 39 41 40 37 41
38 37 32 36 36 33 32 32 31 28 24 24 27 29 31 33 34 35 34 35 35 35 36 35 35 34 35 37 36 37 40 35 35 35 37 38 39 39
46 37 33 35 33 31 32 30 26 25 22 23 27 29 31 33 33 34 34 35 35 36 36 34 32 34 35 35 36 35 34 35 35 35 35 34 32 34
35 34 33 32 31 30 31 28 25 24 22 24 28 29 30 31 31 32 33 34 35 36 35 32 31 34 35 36 37 33 30 30 34 36 39 42 41 35
35 34 32 32 29 28 28 25 25 23 23 25 28 27 28 29 30 31 32 33 34 34 34 31 32 34 36 38 37 32 29 28 27 28 34 41 45 38

GFSNE_500_spd_024.txt.gz
Wind_Speed
10 12 12 11 12 14 15 17 20 17 18 20 22 24 25 25 24 26 27 27 25 25 25 26 27 28 29 29 30 30 29 29 29 28 30 32 31 33
12 13 15 17 17 17 20 22 23 20 18 16 17 19 21 23 24 25 30 31 31 30 29 28 30 31 32 33 35 35 36 36 36 35 33 34 34 35
12 14 17 20 23 22 20 22 21 20 22 22 21 23 24 24 24 26 28 31 27 28 28 29 30 32 34 32 34 34 37 39 40 40 41 42 43 40
14 17 18 23 25 25 20 19 22 24 25 26 26 27 28 28 29 28 27 28 27 27 30 32 33 33 32 30 30 31 32 32 33 36 39 39 42 46
15 17 19 24 27 25 21 22 23 25 27 28 31 33 35 35 33 28 28 29 30 30 32 30 31 36 39 40 40 40 42 42 40 40 39 40 37 37
16 18 21 22 23 19 20 25 27 27 28 30 32 33 37 35 36 35 34 29 32 40 41 38 37 38 40 44 46 47 46 45 43 47 45 45 46 45
17 20 22 23 22 21 23 26 28 30 31 32 32 34 38 27 37 37 37 38 36 39 42 42 45 45 46 46 45 45 46 46 47 45 44 47 48 48
24 22 23 22 22 22 25 26 29 31 32 34 36 34 32 34 41 41 42 39 41 43 48 50 52 48 46 48 49 50 53 54 50 49 50 49 49 49
30 25 23 23 22 24 27 30 30 30 33 34 37 38 37 38 41 41 44 41 43 50 50 52 49 48 48 48 49 51 53 54 54 50 49 48 50 52
33 28 28 27 25 26 28 29 29 31 34 36 39 41 43 44 44 45 45 42 44 46 47 47 46 45 45 46 46 46 48 48 48 48 49 48 48 50
37 30 29 27 27 28 30 31 31 34 35 37 41 43 43 41 41 42 43 41 40 40 42 43 44 44 45 46 48 48 46 45 45 45 45 46 47 45
33 28 28 31 31 31 31 30 33 35 37 40 42 41 38 39 38 39 39 39 40 39 40 43 46 48 47 44 44 45 46 45 45 46 47 47 47 48
26 30 29 33 34 36 34 33 35 36 39 41 38 36 36 37 38 37 37 38 40 39 40 43 43 42 40 38 33 37 39 41 43 45 46 46 45 46
39 38 31 35 38 39 35 34 36 36 39 39 34 35 34 35 33 32 36 39 38 39 40 40 38 36 34 32 31 30 33 35 36 37 38 40 41 43
43 44 35 36 38 41 36 32 33 36 38 34 36 34 32 30 31 32 34 37 38 39 40 39 38 35 33 31 30 29 28 30 34 35 36 37 40 44
47 45 36 35 33 33 27 28 32 34 33 33 34 32 28 27 30 32 35 37 39 40 41 40 38 37 36 35 34 33 34 33 35 38 39 41 43 47
35 30 35 32 35 32 31 31 32 31 30 31 30 27 23 26 31 33 36 37 40 38 39 39 38 38 37 36 36 36 35 35 36 38 40 42 45 49
34 37 32 36 38 34 34 33 32 29 28 28 26 21 22 26 31 33 36 38 38 38 38 38 39 38 35 36 39 39 39 39 38 40 41 40 38 43
29 32 38 38 43 42 34 33 31 28 28 27 23 19 21 26 30 32 36 37 37 38 38 38 38 36 34 32 34 38 38 38 37 36 37 36 34 36
31 40 41 40 35 29 30 32 28 26 29 25 19 19 21 25 28 30 34 35 35 37 37 37 37 36 34 34 35 36 39 38 34 31 30 30 32 33
29 28 32 33 33 28 29 29 26 27 28 24 19 20 21 24 27 28 31 31 33 36 36 35 36 36 35 35 36 37 38 38 36 35 33 31 30 28
33 33 33 35 34 31 29 25 27 27 27 23 21 21 22 25 26 26 28 29 31 34 35 35 34 36 36 36 36 37 36 33 34 37 40 41 40 40
40 36 34 36 36 34 27 26 26 24 27 24 22 23 23 25 24 24 24 25 28 31 34 35 35 35 37 37 37 37 36 33 30 31 39 44 47 49

GFSNE_500_spd_027.txt.gz
Wind_Speed
10 9 9 10 9 12 16 16 15 16 16 17 17 18 19 21 22 22 23 23 23 25 29 30 31 31 31 33 34 34 34 33 32 31 30 31 31 32
12 10 10 11 14 14 10 11 13 13 13 15 15 17 19 22 24 26 27 27 26 26 29 33 34 33 33 33 35 37 39 39 40 39 38 37 35 33
11 12 10 11 15 14 14 10 10 13 16 17 18 20 23 25 27 30 30 29 28 31 31 29 32 35 34 33 35 36 37 36 38 40 43 43 43 42
12 14 12 15 15 14 7 9 11 15 18 20 22 23 24 24 25 29 29 31 30 33 36 36 37 35 35 37 39 38 37 35 33 33 34 36 37 42
14 14 15 15 15 15 12 15 16 17 19 22 24 28 29 29 27 28 23 28 32 36 37 38 37 38 42 45 42 39 43 45 43 44 43 44 44 43
15 14 15 17 17 13 13 16 17 18 21 23 24 26 28 28 28 26 29 34 35 37 39 42 45 47 44 44 42 40 37 44 44 44 45 45 47 50
18 17 17 20 20 18 15 18 20 22 23 24 25 27 28 29 31 32 34 36 40 42 42 43 46 49 49 51 53 44 43 42 44 47 49 49 48 48
20 19 16 20 22 22 23 24 25 25 26 28 28 29 31 31 33 35 37 39 41 44 45 42 46 50 56 53 47 46 43 43 46 47 49 52 51 51
21 23 28 26 26 26 25 27 28 29 31 31 30 32 33 35 36 36 38 39 39 41 40 38 40 41 43 44 45 47 49 49 48 46 46 48 49 52
25 28 28 32 36 30 28 30 32 31 32 34 34 33 34 36 35 35 36 38 39 39 38 36 38 38 38 42 45 47 49 50 50 50 50 48 46 47
31 35 34 29 38 34 32 34 36 35 33 37 36 35 36 37 35 35 37 36 34 36 38 38 38 38 41 45 45 46 48 48 48 49 49 49 50 48
38 39 39 37 33 33 35 33 40 40 37 40 37 34 36 35 35 34 33 31 33 35 35 36 37 38 40 41 40 41 41 40 38 37 38 41 44 45
44 45 45 38 44 44 39 41 41 44 41 43 36 33 35 35 35 31 27 29 31 35 35 36 37 39 40 40 39 39 39 38 35 33 32 32 34 36
50 52 50 47 46 49 44 41 39 40 38 35 34 34 34 35 33 27 26 28 32 35 37 36 38 38 39 38 39 39 37 38 37 35 33 33 33 35
57 57 56 53 54 52 40 43 42 38 35 35 34 33 33 35 30 24 25 28 30 34 37 36 37 38 40 40 40 39 37 36 36 37 37 38 38 40
65 69 63 56 55 48 51 44 41 36 35 37 36 33 33 34 25 23 24 27 30 33 36 36 38 38 39 41 40 38 37 35 35 35 36 37 39 42
72 71 75 60 34 41 40 38 39 34 35 39 35 33 34 31 23 22 25 27 31 33 35 37 39 39 39 40 40 40 37 37 36 35 36 36 39 41
51 67 76 52 34 41 39 44 38 34 42 38 35 32 30 28 22 23 24 26 28 32 34 35 37 39 39 40 41 41 39 40 39 39 38 37 33 36
47 42 17 22 20 37 41 44 36 34 37 36 34 31 28 26 23 23 24 26 27 30 31 33 35 37 39 40 42 39 40 40 39 36 34 32 31 31
43 27 46 30 28 25 30 35 30 32 33 34 32 29 27 25 24 24 24 26 27 29 30 31 33 36 38 38 40 41 41 42 42 37 32 31 33 34
29 27 27 31 28 29 28 27 28 31 31 33 30 28 26 25 25 23 25 27 26 26 27 29 32 35 38 40 40 41 43 43 43 42 37 36 37 35
29 27 29 31 31 32 30 28 28 31 30 30 29 27 25 26 26 23 25 27 25 24 26 29 31 34 37 40 41 41 42 43 45 45 41 42 45 40
15 19 30 34 34 36 35 32 30 30 29 29 30 27 25 28 27 24 26 27 25 24 25 28 30 32 37 39 41 42 42 43 43 44 44 46 47 53

GFSNE_500_spd_030.txt.gz
Wind_Speed
5 6 7 7 9 11 13 13 9 10 10 12 13 15 16 18 21 22 23 23 23 22 21 22 25 31 36 34 34 36 38 38 38 37 36 34 34 33
4 5 7 8 10 10 10 9 7 8 10 12 15 18 21 22 24 25 28 28 24 25 25 26 27 27 29 33 33 34 38 41 42 42 42 41 40 39
4 6 8 8 10 8 6 4 6 9 12 14 18 19 21 22 23 26 28 28 21 27 29 31 34 37 36 35 38 39 36 36 38 39 41 40 41 43
7 9 11 10 9 10 6 6 9 13 17 20 20 20 22 24 24 23 25 26 28 28 31 35 39 43 44 42 41 40 41 41 42 36 36 38 37 36
9 12 12 14 12 10 10 12 13 17 20 23 25 26 25 26 25 24 25 25 30 33 35 39 43 46 45 41 44 48 47 47 47 49 44 42 42 44
12 14 14 16 15 13 12 14 16 20 23 25 27 30 30 30 28 28 28 31 32 35 38 42 45 46 44 44 43 48 47 45 52 44 49 43 43 45
14 15 17 18 14 17 16 17 19 22 23 27 30 32 33 32 32 32 34 36 34 38 41 43 44 43 41 43 43 45 45 41 40 38 42 45 44 43
18 19 20 19 19 18 22 25 23 26 28 30 32 35 36 37 34 35 36 38 37 39 43 42 41 40 41 43 43 42 40 39 41 41 42 41 45 46
22 23 23 23 23 24 26 25 27 32 34 34 35 38 39 39 38 38 38 35 37 39 40 40 41 39 39 40 40 41 42 43 42 42 43 44 44 46
28 29 29 29 29 33 32 31 33 33 34 37 40 41 39 40 39 38 38 37 38 41 38 39 39 37 38 40 41 41 42 39 37 37 37 39 41 45
27 31 31 34 33 34 36 33 29 33 36 40 45 47 46 42 38 38 37 37 40 41 36 36 37 38 39 41 42 40 39 38 37 37 37 38 36 35
26 28 31 34 37 39 40 40 38 41 41 44 43 45 45 42 36 36 37 37 39 39 34 36 36 39 39 40 40 39 38 37 37 38 38 38 37 34
41 39 37 38 43 47 46 46 47 47 45 44 39 43 46 40 37 36 36 37 38 37 34 34 36 37 39 41 40 38 37 37 37 38 37 36 37 37
47 49 47 48 50 51 46 51 55 54 51 46 42 44 48 44 38 37 36 36 35 35 33 33 35 35 38 39 39 38 37 37 38 36 36 36 36 36
60 58 49 53 61 60 62 59 62 55 52 49 46 49 48 44 39 35 37 36 35 33 32 31 33 33 36 38 38 37 37 37 37 36 36 37 37 37
55 50 62 57 54 56 69 72 71 63 52 49 44 47 48 45 39 35 37 35 36 33 29 31 32 31 34 37 38 37 37 37 36 37 38 38 38 38
58 68 68 62 63 59 61 78 71 64 42 40 43 49 49 44 36 34 37 36 35 33 31 29 29 30 32 36 37 38 37 37 37 38 39 38 38 37
64 64 65 55 70 75 57 58 74 62 48 43 53 53 45 37 33 35 37 37 35 34 32 30 29 28 30 34 37 39 39 37 37 38 39 38 34 35
70 65 66 69 76 65 71 57 51 36 39 47 51 47 41 34 33 34 36 37 35 35 32 29 27 27 28 33 38 39 40 39 38 39 40 40 35 35
70 65 65 71 61 64 66 46 52 36 35 42 44 41 37 32 33 34 36 34 35 35 33 28 26 26 27 31 36 40 41 42 40 40 41 41 39 39
66 64 65 64 70 68 73 40 38 38 36 41 41 39 34 33 32 35 36 33 35 35 32 27 27 26 28 32 35 38 42 43 44 43 44 46 44 44
63 55 57 67 65 53 31 37 37 34 36 38 38 36 34 33 34 35 35 34 35 34 31 27 27 28 29 33 35 38 41 43 46 47 46 50 53 51
55 50 57 57 50 36 35 36 37 39 38 35 37 35 33 34 35 34 36 35 33 33 30 28 28 29 31 34 35 39 40 42 44 46 49 50 53 56

GFSNE_500_spd_033.txt.gz
Wind_Speed
1 1 4 5 5 8 10 6 2 3 2 8 11 15 17 19 21 24 26 25 26 22 19 24 26 28 32 36 38 35 33 36 38 37 38 37 37 35
6 4 3 4 7 8 6 3 4 6 9 10 14 18 19 18 21 24 26 27 27 25 23 27 31 34 37 41 45 45 37 35 38 42 39 38 38 40
9 6 4 4 7 7 9 8 9 11 14 17 19 20 20 21 23 25 26 25 26 28 31 33 33 37 41 46 49 50 45 40 36 36 45 41 38 40
12 9 7 7 7 11 13 11 14 15 17 20 22 19 22 24 25 26 29 29 29 28 31 34 35 39 43 45 46 44 39 37 40 36 41 49 44 42
14 12 10 10 10 11 13 12 15 17 20 22 24 24 25 28 28 29 29 30 31 32 32 35 39 40 42 43 43 43 43 41 36 41 40 40 38 37
16 15 15 14 13 14 15 17 16 18 20 23 25 26 28 29 32 35 34 33 31 33 34 36 35 40 43 44 44 43 45 45 40 35 36 34 34 35
19 19 18 19 18 16 15 17 20 22 25 24 25 28 32 33 36 37 39 39 40 35 35 39 39 40 41 41 40 41 45 45 42 38 36 39 40 41
24 23 24 24 22 19 18 20 17 20 25 29 30 29 32 37 41 44 41 38 40 38 36 38 39 41 42 43 40 42 42 45 44 41 39 35 35 37
25 27 27 28 26 26 26 28 28 28 30 30 29 31 33 37 41 44 44 40 41 41 39 40 41 41 40 44 42 43 45 45 42 41 40 37 37 36
27 27 30 32 32 31 32 35 33 32 32 34 34 35 39 42 41 42 41 40 40 40 39 39 42 39 38 41 41 41 44 43 40 38 37 37 38 39
29 29 30 34 35 35 35 40 36 36 38 41 42 39 43 42 44 45 43 42 44 42 39 38 38 40 39 40 40 40 41 41 39 38 37 39 40 40
36 38 34 30 32 35 34 39 41 40 45 44 50 49 44 45 46 49 48 43 44 43 40 41 40 41 39 41 39 40 41 41 38 36 37 37 37 38
48 45 40 42 40 41 44 47 49 50 47 51 52 52 53 47 46 49 53 45 45 45 40 39 39 39 38 41 40 40 40 41 39 35 36 36 34 34
52 50 41 45 47 52 56 61 58 62 59 57 59 55 53 48 47 47 52 46 44 44 41 38 38 37 38 40 39 37 37 40 39 35 36 37 35 36
50 56 52 48 51 49 49 62 66 65 66 61 58 66 56 46 48 46 50 46 45 43 39 36 37 37 37 40 38 35 33 37 38 36 36 37 38 39
53 53 60 62 55 51 53 65 69 70 73 70 62 76 59 54 43 47 49 46 46 42 37 33 36 36 38 39 37 36 34 36 38 38 37 38 40 40
58 61 63 67 62 59 61 69 68 74 71 75 43 46 60 73 46 45 48 46 48 40 36 30 30 33 38 39 37 37 36 36 38 40 41 38 40 41
66 67 67 69 67 66 64 69 63 68 76 42 43 51 47 57 43 47 44 47 39 36 34 34 33 34 36 37 36 34 36 37 39 41 43 44 41 42
72 74 76 74 71 71 67 69 65 69 49 50 59 55 51 42 42 45 40 40 39 37 33 35 33 35 37 37 38 36 37 39 40 42 42 44 46 44
71 75 76 76 72 66 66 63 65 70 67 56 57 64 45 37 42 38 38 38 39 37 34 35 32 35 38 35 36 38 37 40 42 41 43 45 47 50
67 72 75 77 77 71 64 66 65 69 45 57 57 51 35 35 38 37 44 38 39 35 34 35 31 36 37 35 35 37 38 38 41 42 42 45 48 52
80 83 87 81 77 72 65 64 64 57 50 46 33 32 33 35 38 41 41 40 36 34 33 34 33 36 36 34 35 37 38 39 40 40 42 44 49 53
56 66 88 75 72 70 64 61 57 50 49 35 34 33 33 37 41 37 39 39 34 33 34 34 35 36 34 33 34 36 36 36 38 39 42 44 47 50

GFSNE_500_spd_036.txt.gz
Wind_Speed
5 3 4 5 5 8 9 8 5 4 6 8 13 14 16 17 19 23 25 27 28 26 24 25 27 29 32 38 41 43 43 42 38 33 34 31 32 32
8 6 4 4 4 6 7 10 11 10 10 14 18 18 15 18 21 24 25 27 29 28 31 31 31 31 35 37 41 44 44 41 36 31 31 33 31 37
11 8 8 8 8 8 8 11 14 14 16 17 19 20 20 16 21 24 25 28 28 30 32 34 33 33 35 37 40 42 42 44 44 39 33 34 33 34
12 12 12 13 12 11 11 12 13 17 19 20 19 17 20 26 25 26 28 29 30 29 28 33 34 33 35 38 39 40 43 45 46 44 36 34 36 34
15 16 16 15 16 13 12 13 15 19 19 20 22 21 20 21 26 30 31 34 35 32 32 32 33 33 35 38 41 40 43 46 48 46 44 38 32 35
17 17 20 17 19 18 14 18 16 17 22 23 24 26 26 24 24 28 34 35 35 31 29 30 31 36 36 38 38 38 41 45 46 48 48 43 38 33
19 20 22 23 21 21 20 20 20 18 18 23 27 29 24 25 26 29 35 32 34 36 36 35 33 35 36 37 39 40 41 44 45 47 47 45 39 36
19 19 23 25 24 26 27 27 24 26 26 28 30 32 29 30 32 34 36 37 36 38 37 36 38 38 39 36 36 41 45 44 46 45 47 44 41 38
20 22 24 26 28 28 29 31 34 31 31 33 35 38 39 36 38 41 40 40 41 40 41 41 38 39 39 38 38 40 42 44 45 46 47 43 39 39
21 22 26 29 29 30 32 35 39 40 38 36 37 41 46 45 41 43 47 45 41 42 41 43 41 40 41 37 34 37 40 43 45 46 47 45 40 40
28 26 29 30 32 32 33 32 36 39 40 40 44 43 46 49 50 54 52 50 49 44 43 41 43 40 39 37 33 37 41 44 44 44 47 44 40 41
32 30 31 32 35 38 39 39 38 37 43 47 50 50 54 53 56 61 64 56 53 41 41 41 39 40 39 38 33 36 40 42 44 43 43 44 40 38
35 34 37 37 40 40 42 45 45 48 51 58 60 54 57 59 63 67 71 66 53 47 41 42 41 38 39 38 34 34 38 40 43 42 42 43 43 40
40 42 44 45 44 47 46 44 48 47 49 59 54 55 56 63 68 67 69 72 62 45 42 43 43 35 37 35 33 33 35 38 42 41 41 43 43 44
43 46 49 52 52 53 53 55 55 53 49 53 54 54 62 66 70 74 64 56 57 38 39 36 41 33 35 35 32 33 33 36 40 40 41 42 44 43
50 53 55 57 56 57 58 57 61 61 65 58 58 60 71 76 68 40 38 41 43 37 35 31 38 39 32 34 31 32 33 35 38 39 40 41 44 45
58 59 57 60 63 62 62 62 62 62 65 61 65 65 72 77 76 45 37 39 41 45 32 28 34 31 32 34 31 32 32 36 37 39 40 40 42 44
56 58 60 63 65 66 68 67 70 68 65 68 68 67 79 75 52 45 41 41 38 37 26 29 28 28 33 33 32 32 31 34 37 38 39 40 41 44
60 56 60 66 67 66 68 69 73 73 69 66 66 69 71 62 54 47 47 34 43 31 29 26 26 29 31 30 32 30 31 34 37 38 38 40 41 44
66 66 68 71 72 71 67 67 69 72 71 66 67 73 54 57 58 52 50 33 32 29 27 28 29 29 31 32 34 32 32 35 35 37 38 39 41 43
64 70 74 72 69 66 69 71 76 78 75 71 65 65 64 64 47 45 37 38 28 28 30 28 29 31 32 32 32 32 33 34 35 37 37 35 38 41
67 65 62 56 60 65 70 75 79 85 83 69 56 71 63 56 44 35 30 24 27 26 27 27 31 30 31 31 31 31 33 34 34 36 36 36 37 40
60 53 52 56 62 65 64 62 71 70 72 39 50 56 51 48 38 32 28 28 28 30 29 29 30 29 31 29 30 31 33 34 35 35 36 37 39 41

GFSNE_500_spd_039.txt.gz
Wind_Speed
8 5 6 6 8 8 7 8 10 10 9 10 12 15 17 18 20 22 22 23 25 26 26 26 26 27 26 26 27 31 35 36 36 38 37 34 32 33
9 8 6 5 7 10 9 8 8 10 13 17 17 16 16 16 19 21 24 27 29 29 27 25 28 29 30 28 29 32 35 37 38 40 40 38 36 36
11 9 9 8 9 10 11 11 12 14 13 14 17 18 18 20 21 21 22 24 28 28 27 28 28 28 28 29 31 32 35 37 40 41 41 41 40 39
13 11 11 12 12 13 14 13 13 15 19 19 15 19 21 22 25 25 25 24 27 30 28 28 27 29 29 30 31 33 35 37 39 40 42 41 42 39
12 14 15 15 17 17 16 17 16 17 18 20 23 18 21 24 23 24 26 29 28 28 30 30 31 31 30 31 32 33 35 38 39 39 41 41 43 40
12 13 16 16 19 21 20 20 18 17 19 19 23 27 27 24 25 26 29 30 35 32 34 33 32 31 32 32 33 33 34 36 37 41 44 44 46 42
10 12 15 17 19 23 25 26 27 25 24 24 25 29 34 34 30 29 33 33 35 33 35 36 35 37 33 33 33 32 32 32 35 38 42 42 43 43
7 8 11 14 16 21 25 28 31 31 29 28 30 31 37 40 40 39 39 40 43 44 37 44 41 39 40 36 34 33 33 33 35 38 39 40 40 44
7 9 10 11 14 18 20 23 26 31 33 34 33 35 38 41 44 44 45 48 50 52 52 50 42 42 38 37 32 33 31 32 33 36 36 38 40 40
12 12 12 16 16 17 21 24 27 29 31 35 36 38 40 44 47 51 58 55 58 62 61 61 48 38 33 38 32 31 31 32 31 33 35 38 39 39
18 20 20 21 20 22 26 27 31 29 35 35 39 42 46 50 51 55 53 61 60 60 60 59 57 38 33 37 34 30 31 30 29 31 34 36 38 38
24 23 24 23 25 27 32 34 32 30 36 41 43 45 48 51 51 48 54 57 61 60 61 63 61 53 39 38 39 27 29 30 29 29 32 36 38 39
29 29 32 32 33 35 36 40 38 39 41 44 47 49 50 50 53 58 56 53 59 66 56 47 47 58 40 31 38 27 26 29 29 28 32 36 38 38
32 33 36 38 39 41 42 42 45 50 53 50 51 50 53 57 59 66 65 53 60 59 56 49 45 32 31 30 28 34 24 26 28 28 30 34 37 38
36 39 41 43 45 46 47 48 52 56 56 56 55 55 55 58 64 66 70 58 67 71 57 48 41 32 27 24 29 26 24 24 27 26 29 32 36 39
44 44 46 48 48 50 54 54 54 56 57 58 59 59 57 57 65 68 77 63 69 53 36 39 30 33 29 23 27 25 22 24 26 26 27 31 36 38
48 50 52 55 60 58 58 60 59 61 64 63 64 64 59 59 61 66 62 78 66 47 42 37 36 31 26 25 25 21 22 25 26 25 27 29 34 38
51 52 55 57 60 60 61 61 61 63 67 70 72 70 66 61 64 64 71 71 59 35 44 31 28 34 24 25 21 18 22 24 26 25 26 29 33 37
58 58 57 57 59 62 64 64 64 67 70 72 72 72 70 67 63 64 66 67 49 47 47 28 28 22 23 23 17 18 22 24 26 25 25 28 32 36
61 64 64 64 65 66 65 66 63 58 58 62 66 72 74 77 72 64 61 55 42 41 42 30 26 18 22 22 19 21 22 25 25 25 26 28 31 35
66 66 66 66 64 63 62 61 53 49 54 62 68 76 81 85 59 71 72 50 35 32 26 29 21 21 23 21 21 23 22 26 25 24 26 28 30 35
67 67 67 62 58 60 57 53 48 52 57 62 64 56 48 54 61 54 62 49 43 26 31 27 24 21 23 23 23 22 25 25 25 25 26 28 29 33
70 69 61 58 58 59 56 49 49 52 56 48 57 43 55 49 51 27 33 31 25 26 24 22 22 21 24 26 22 23 26 25 26 26 27 27 31 34

GFSNE_500_spd_042.txt.gz
Wind_Speed
5 5 4 3 4 4 4 6 8 8 7 10 12 12 14 17 20 22 23 22 24 24 24 22 20 22 24 24 24 26 28 29 32 34 34 35 34 33
9 7 7 6 6 5 8 9 9 10 10 10 11 11 14 16 19 22 24 23 24 25 24 25 26 26 24 26 26 27 29 29 30 32 35 36 37 35
9 10 9 10 11 12 12 13 13 11 10 12 11 13 15 19 21 22 23 25 26 27 27 27 28 28 28 26 27 28 29 29 29 30 32 35 36 36
12 9 10 10 11 14 14 15 18 18 18 16 16 16 16 19 23 23 23 24 27 30 31 31 29 30 32 31 30 29 29 30 29 30 33 35 36 38
11 9 10 8 11 13 14 16 17 19 22 24 22 21 21 22 24 25 28 29 30 32 36 38 36 41 38 39 36 34 30 30 30 29 34 35 35 37
5 5 8 9 11 14 16 17 20 21 23 24 26 26 27 29 30 31 33 35 36 38 40 42 46 46 45 37 38 33 31 31 32 30 33 35 35 36
3 4 2 5 9 11 10 13 15 18 21 24 26 28 30 33 35 35 35 38 38 45 46 48 51 53 50 46 33 27 30 30 30 30 31 34 34 34
4 3 2 2 4 7 9 13 16 15 16 20 23 25 29 34 37 37 37 40 43 47 48 51 53 57 48 44 42 26 25 25 25 26 28 31 32 32
5 3 2 5 9 11 13 15 18 21 24 25 27 27 28 32 39 41 41 43 45 49 49 51 55 53 49 42 37 25 29 26 22 25 26 29 29 29
9 12 11 13 13 15 18 20 22 24 27 33 33 33 36 37 40 42 41 45 42 47 52 52 54 56 48 42 37 32 33 31 23 23 23 27 28 27
16 16 18 18 21 24 25 26 26 25 31 33 35 38 38 42 45 48 48 50 51 51 54 59 52 48 50 38 42 31 38 35 26 22 21 25 27 27
23 21 21 23 24 26 29 31 33 31 35 35 36 40 44 48 50 51 49 53 57 61 59 63 58 54 54 46 43 30 23 27 21 22 22 23 25 27
25 25 26 27 29 32 35 35 33 34 38 40 42 46 49 52 50 53 55 57 61 64 65 64 60 69 61 47 42 39 27 27 23 22 22 21 23 26
28 29 31 34 35 36 38 39 39 41 45 49 49 49 53 51 52 57 59 60 63 68 72 78 63 67 51 33 36 39 25 23 24 23 23 21 21 25
31 33 35 36 38 39 42 44 47 50 52 54 54 54 54 54 55 57 62 65 64 65 70 72 66 57 30 23 26 27 27 25 25 24 23 20 21 24
37 37 38 40 42 45 47 50 51 53 57 59 59 60 63 62 60 58 63 67 68 70 71 76 63 43 35 32 28 33 29 24 26 25 22 20 21 24
40 41 43 44 47 50 53 54 55 57 59 61 65 65 65 66 64 63 57 64 65 68 66 65 63 63 41 32 28 36 32 24 26 25 21 20 21 24
44 46 48 49 51 54 56 57 58 59 59 62 63 61 61 66 69 70 68 62 62 69 75 56 54 51 39 34 31 35 23 24 26 22 21 21 22 25
48 50 50 52 54 55 58 62 63 65 63 57 54 54 55 57 65 67 72 69 66 67 69 61 67 48 37 23 28 23 21 26 24 22 21 21 23 25
51 52 53 56 57 59 62 64 63 63 58 60 55 50 49 53 62 70 75 76 73 55 76 80 58 40 27 23 33 21 23 27 23 22 21 21 24 25
54 55 57 58 62 65 66 66 63 57 57 59 59 54 56 58 61 62 57 73 64 62 73 54 44 34 28 27 22 23 26 22 24 23 20 22 25 27
58 59 60 63 65 67 67 67 66 62 60 58 57 53 53 51 55 56 41 41 41 43 34 29 21 26 31 29 22 21 22 23 25 21 21 24 26 28
61 63 64 65 68 71 69 63 59 58 60 59 55 53 47 48 55 53 49 36 23 28 34 24 17 28 29 24 24 25 23 24 23 22 25 26 26 27

GFSNE_500_spd_045.txt.gz
Wind_Speed
5 5 5 4 5 6 6 6 7 9 8 9 10 11 14 18 20 21 20 19 20 22 24 24 23 24 27 25 24 26 25 25 25 25 27 28 32 32
7 6 4 5 7 7 8 9 8 6 6 7 8 9 11 13 18 19 21 21 22 23 24 25 25 26 29 30 25 25 27 27 25 26 27 28 30 32
7 5 4 3 3 5 6 6 7 7 8 10 12 12 13 17 18 18 19 22 24 24 27 29 32 33 35 37 33 29 28 29 27 26 27 29 28 30
10 6 5 6 4 4 5 7 9 10 9 10 11 13 17 18 21 23 26 28 30 31 33 37 40 41 45 42 39 34 30 24 27 26 27 28 28 29
9 7 5 5 7 7 8 9 11 11 12 14 16 16 19 22 24 27 26 27 31 35 37 39 41 44 44 47 47 43 43 29 23 25 24 26 27 29
4 5 4 4 4 5 6 7 7 9 12 15 18 22 23 26 27 29 29 29 32 37 39 41 41 43 45 47 47 44 44 30 23 22 23 24 25 27
7 6 4 3 2 3 5 8 7 9 11 14 16 19 22 26 29 31 33 33 33 37 39 40 42 44 49 49 51 46 34 28 23 22 21 25 24 25
8 7 5 3 4 6 8 11 12 13 16 20 19 20 23 27 30 35 35 33 34 38 42 39 47 51 54 54 54 47 45 26 30 28 23 26 24 23
9 8 8 9 11 13 15 15 17 18 22 25 24 25 26 28 32 34 39 41 41 38 43 43 47 54 58 61 61 60 51 35 32 30 25 25 23 21
13 13 12 13 14 18 22 22 22 22 26 29 32 32 35 37 38 41 44 46 45 44 46 50 51 55 60 60 62 66 61 51 34 36 27 24 22 20
18 16 19 19 21 24 25 26 25 22 28 33 37 38 38 39 41 46 48 53 53 51 51 55 57 60 73 54 53 63 68 49 32 25 19 23 21 19
22 22 22 24 25 27 30 32 31 30 34 34 35 39 42 44 47 51 54 59 59 58 52 59 60 61 66 65 68 71 52 50 33 24 23 23 20 19
23 25 26 29 32 33 34 34 34 35 38 42 42 44 45 45 48 52 56 60 61 61 60 63 63 65 70 72 75 61 54 31 32 34 26 25 20 19
22 24 27 31 32 34 37 37 40 43 45 47 47 47 47 48 50 51 51 60 66 68 68 68 70 70 71 76 76 73 52 30 34 31 27 25 20 19
32 32 32 34 35 37 39 41 44 47 49 51 51 50 52 55 60 59 57 55 56 60 65 69 70 70 69 68 75 57 46 33 31 30 28 26 22 20
40 39 40 40 40 41 43 44 47 51 51 52 54 56 57 60 61 62 57 55 55 53 53 59 65 64 64 60 54 46 39 30 30 31 29 24 24 23
44 44 45 43 44 46 46 47 50 51 52 54 58 61 60 60 57 60 61 58 54 55 58 63 68 71 69 65 58 53 57 38 29 35 30 26 25 25
44 44 42 43 45 47 49 50 53 53 54 56 60 62 61 57 54 61 57 56 60 61 64 69 74 65 61 63 52 56 34 36 27 30 28 26 26 28
41 41 42 44 46 48 51 53 53 55 57 60 62 62 63 60 55 57 53 55 56 56 64 78 76 65 61 47 53 48 33 21 27 26 26 27 28 28
43 43 45 47 49 51 53 54 55 58 61 63 64 63 63 60 59 55 52 54 50 51 59 61 59 52 52 49 49 26 22 23 27 29 24 27 28 27
47 49 49 51 53 55 56 57 59 61 64 64 66 63 62 63 60 60 53 51 50 49 49 49 45 11 29 35 39 32 23 28 31 23 23 29 27 26
52 53 54 55 57 58 60 61 62 65 65 65 65 63 64 62 61 59 52 49 44 40 39 40 37 30 36 29 24 23 26 30 24 19 25 27 28 28
55 57 59 59 60 62 63 64 66 66 66 64 61 63 63 60 56 53 49 48 48 40 33 32 32 30 29 23 19 23 30 24 23 20 22 27 28 27

GFSNE_500_spd_048.txt.gz
Wind_Speed
5 3 7 7 8 10 10 8 7 7 8 7 6 7 10 13 16 18 18 19 22 23 26 26 26 29 30 29 30 25 24 25 22 19 20 23 23 27
6 5 3 6 7 7 9 8 8 9 9 8 8 8 9 13 16 19 20 21 22 23 25 29 31 32 35 34 36 42 33 37 26 24 21 23 23 25
5 5 1 2 4 6 7 6 5 6 8 9 9 12 13 14 16 18 20 21 22 23 27 29 32 32 35 38 38 38 41 37 32 25 23 24 22 23
6 7 5 4 3 3 3 2 3 4 6 8 10 12 15 16 17 20 20 21 25 26 28 30 31 33 37 41 43 44 45 41 32 32 21 21 24 22
8 8 6 6 5 3 2 1 0 2 6 8 10 10 12 14 16 20 23 23 24 25 28 32 35 36 41 45 47 48 46 42 41 41 22 18 23 22
8 9 8 7 3 2 2 2 1 2 3 6 12 15 17 21 22 24 24 26 26 29 32 34 36 39 41 44 44 47 49 47 45 38 29 21 19 22
11 11 9 6 4 4 3 5 5 7 9 11 12 14 17 21 25 28 28 30 29 36 38 35 38 40 44 53 54 58 58 65 60 48 25 23 19 19
13 11 9 5 6 8 8 9 10 11 14 14 14 15 17 22 27 29 32 34 32 33 39 42 46 46 47 52 53 60 60 56 55 54 55 30 29 16
13 13 10 9 9 12 14 13 12 15 19 19 20 22 24 27 29 32 36 39 40 39 44 43 47 51 53 54 55 61 59 59 60 55 56 39 27 20
13 12 10 13 15 17 18 18 19 22 24 28 29 26 30 31 36 39 42 45 45 47 49 50 51 51 54 55 57 63 66 65 61 61 49 47 27 19
16 15 16 17 19 23 25 25 23 24 29 32 35 37 37 38 43 47 47 48 48 47 47 51 52 56 58 58 59 62 67 65 62 63 58 34 33 18
19 21 20 21 23 27 29 28 28 31 35 36 36 37 41 43 48 51 50 53 55 57 55 57 55 57 57 55 56 60 65 69 68 67 65 43 30 20
14 15 17 22 26 28 30 31 31 33 35 38 40 41 43 44 43 41 46 56 60 61 58 62 56 57 58 62 61 57 57 59 59 66 61 52 33 24
20 19 21 25 26 25 27 29 33 35 38 41 42 42 45 46 47 47 49 49 52 53 53 56 56 59 58 58 59 60 57 74 68 62 70 50 39 26
28 28 29 31 33 33 36 37 39 41 43 44 46 46 46 48 49 53 56 57 53 49 50 47 51 56 58 60 63 63 64 65 58 59 43 45 37 28
37 36 38 38 39 40 42 44 45 48 49 49 48 49 48 50 52 56 59 59 55 50 52 44 45 48 56 58 67 63 67 47 55 48 45 49 33 29
42 43 43 42 42 43 42 43 48 48 47 48 49 49 51 53 54 58 59 56 57 51 48 47 47 47 51 55 66 58 55 60 55 48 46 43 32 28
50 45 46 45 46 43 43 43 43 45 46 47 48 51 54 57 58 60 61 58 59 57 49 46 47 46 48 50 50 51 53 55 43 39 31 28 31 31
50 48 50 47 44 43 43 43 44 46 46 48 51 53 56 58 61 61 61 58 59 59 52 48 46 46 44 46 49 39 13 35 34 25 32 25 24 30
51 49 47 45 44 45 45 45 46 47 48 51 54 56 59 61 62 60 59 60 61 58 53 45 43 39 41 40 44 34 27 35 27 34 18 24 29 30
44 44 45 47 47 47 48 48 48 51 54 55 56 59 60 63 60 59 58 59 55 55 53 43 34 30 31 32 38 38 29 21 36 23 26 23 25 24
46 46 47 49 50 51 51 52 54 56 57 58 60 61 64 60 60 60 60 56 54 55 53 39 35 30 31 32 33 34 25 21 20 21 23 27 27 19
48 50 51 52 54 55 55 56 58 58 59 60 62 64 60 60 60 60 59 57 57 56 53 35 30 30 28 29 31 32 19 18 23 21 28 26 23 24

GFSNE_500_spd_051.txt.gz
Wind_Speed
4 6 8 10 11 9 8 8 7 5 5 7 7 9 9 11 11 10 11 12 14 16 18 19 23 24 25 27 29 29 32 32 35 31 33 28 23 25
3 5 8 9 10 10 11 11 11 9 9 8 7 7 7 9 10 11 11 13 16 16 18 22 25 25 27 30 30 34 39 36 35 43 40 33 24 22
1 2 7 9 8 9 9 10 9 7 7 5 4 5 7 9 11 13 13 15 16 18 19 24 26 28 30 33 35 39 42 42 45 45 48 48 21 22
5 2 6 9 8 7 7 6 5 3 2 4 6 7 10 12 12 14 15 18 20 22 23 24 27 29 33 38 41 44 47 48 48 49 52 45 33 24
9 6 7 11 10 8 6 4 2 0 2 6 8 9 11 12 14 16 19 22 25 27 27 32 32 31 36 39 44 47 50 52 54 51 48 50 47 28
11 9 10 12 11 8 5 2 3 1 3 5 10 11 12 15 17 19 20 24 25 30 30 33 36 40 42 44 46 48 50 52 54 53 48 49 41 37
13 13 13 13 10 8 6 2 3 4 6 7 9 10 14 18 21 25 25 25 28 31 34 38 40 41 45 47 48 49 51 53 54 54 52 50 43 45
15 15 14 12 9 6 5 6 6 7 9 10 12 13 16 20 26 27 29 32 32 38 38 36 43 43 45 49 49 51 54 56 56 55 51 54 47 46
13 14 15 13 8 7 7 9 11 13 15 15 15 18 19 25 27 30 33 35 36 41 46 42 44 45 45 49 50 51 54 55 55 57 56 54 48 39
15 16 15 13 12 13 12 13 16 18 18 19 19 21 25 28 32 34 36 37 35 36 44 44 45 46 45 44 48 50 50 52 54 56 50 48 54 45
15 16 16 16 17 18 18 19 19 21 24 24 26 27 29 33 37 39 41 42 40 39 45 50 47 46 44 45 45 48 52 54 55 56 54 47 51 40
18 16 17 17 20 22 21 21 20 23 25 26 26 29 31 35 40 45 45 47 49 48 50 54 51 51 48 44 40 47 51 54 55 57 67 66 65 46
10 9 11 14 17 18 20 21 20 22 25 28 29 31 36 40 43 44 44 45 48 51 51 54 53 53 52 48 42 47 50 52 56 59 63 65 57 52
15 15 16 18 21 23 25 27 29 31 32 34 34 35 40 43 44 43 44 44 47 50 52 54 53 56 55 51 47 44 42 47 55 61 55 57 69 47
22 23 25 28 27 28 31 34 36 37 38 39 37 39 43 44 44 44 44 48 49 53 56 54 53 54 54 53 50 50 49 47 55 56 46 55 52 40
33 32 32 32 33 35 36 38 38 38 40 42 43 44 43 43 43 45 46 50 52 53 53 53 58 57 52 49 49 50 53 58 54 45 35 28 37 35
34 34 38 40 42 43 41 39 37 41 44 44 41 41 41 42 44 46 49 52 55 58 53 53 55 54 54 48 45 46 50 51 51 47 40 25 31 30
45 42 43 46 48 48 44 41 41 42 41 42 43 43 43 43 45 48 52 54 56 57 54 55 56 56 51 45 44 44 45 50 49 48 36 22 25 20
51 52 49 50 49 45 44 44 42 42 42 44 44 46 46 47 48 51 52 54 56 55 55 55 54 54 47 51 46 43 43 47 44 40 27 22 22 23
49 51 51 51 50 49 45 41 41 42 43 44 46 47 48 49 51 53 55 55 56 55 55 52 48 49 51 48 42 36 36 43 36 30 23 24 27 23
50 51 51 49 45 42 39 40 42 43 45 45 46 48 50 52 54 55 55 57 55 53 53 51 48 51 49 39 37 33 35 40 35 20 14 17 19 23
42 41 41 40 40 41 43 44 45 46 47 49 50 51 53 55 56 56 57 57 53 54 52 51 52 50 44 36 37 30 33 35 33 29 20 18 17 19
40 40 40 42 43 44 45 47 49 51 52 53 54 55 56 57 57 58 58 55 54 55 51 51 51 48 45 37 31 27 30 29 33 28 23 17 16 19

GFSNE_500_spd_054.txt.gz
Wind_Speed
6 8 10 10 9 8 7 6 5 4 3 4 7 7 5 4 4 6 8 10 11 14 16 18 21 23 24 26 30 31 37 41 44 43 46 46 46 47
4 7 9 10 8 8 8 7 7 7 6 5 5 4 3 5 7 7 8 10 12 14 15 17 23 23 24 30 34 37 40 42 44 46 46 43 44 43
2 5 10 10 10 10 10 9 8 7 5 3 2 3 6 6 6 7 9 12 16 17 17 19 23 25 28 34 37 40 43 44 45 46 48 46 43 44
4 5 11 12 11 11 11 10 8 6 4 4 3 3 4 6 9 10 14 16 17 19 23 27 29 32 34 36 39 42 43 45 47 46 47 48 45 46
8 7 11 16 15 12 9 8 7 5 4 1 2 6 8 8 10 13 15 17 21 24 26 30 34 38 41 41 43 43 45 46 47 48 48 49 47 43
11 9 11 16 15 12 8 8 7 6 4 3 7 9 11 13 14 17 20 22 24 27 29 32 36 37 39 43 46 46 47 47 48 48 48 47 47 45
12 11 13 18 17 15 11 7 5 4 4 6 8 10 13 15 17 18 19 22 26 29 28 32 35 38 42 39 42 49 51 49 49 48 47 47 48 47
13 13 14 17 17 15 10 7 5 6 6 6 9 10 12 15 16 20 22 24 23 31 32 32 40 40 44 44 46 44 45 51 49 45 45 49 50 46
13 14 15 18 17 15 10 6 4 6 9 10 10 13 13 18 19 20 23 26 28 30 33 31 38 39 42 44 45 46 48 50 51 51 49 49 51 49
12 13 15 18 18 15 11 8 7 10 13 13 13 13 14 17 21 24 27 27 31 34 37 36 39 41 40 40 44 46 47 48 50 51 54 54 53 55
11 12 16 18 18 16 12 11 12 13 16 16 15 16 20 24 28 28 33 34 31 33 41 45 45 46 43 42 46 47 46 47 48 51 57 58 55 59
13 15 18 18 18 18 15 12 9 11 16 16 18 19 22 27 34 39 39 39 38 33 40 47 47 51 44 41 45 49 49 44 44 48 54 62 61 64
13 15 16 17 16 15 14 13 14 17 20 23 26 27 30 33 38 41 40 41 39 39 41 48 49 50 51 48 46 48 46 45 48 45 49 55 54 59
15 16 16 16 17 18 17 20 22 23 26 29 30 32 34 37 39 41 41 39 40 41 42 47 51 52 53 52 54 50 45 39 40 42 49 51 55 47
22 22 21 20 21 22 22 23 25 27 29 32 35 34 36 38 38 36 36 38 39 42 46 49 51 53 54 54 57 53 48 39 38 41 44 51 52 53
23 25 27 27 27 30 31 32 33 35 36 35 34 35 35 34 35 36 36 39 40 42 45 50 52 53 54 55 57 53 51 52 41 39 44 42 46 50
31 31 32 34 33 32 32 34 36 40 41 39 38 38 36 35 36 37 39 40 43 45 46 48 51 53 54 54 53 53 52 49 43 42 43 38 40 38
36 37 37 39 39 39 41 43 42 41 39 39 39 38 36 36 38 39 41 42 44 47 50 51 52 51 54 55 54 51 52 43 41 40 41 44 45 31
42 43 44 46 49 45 46 45 44 42 41 41 38 37 37 38 40 41 42 45 47 50 51 52 54 52 52 52 52 51 48 43 39 39 36 35 40 29
46 45 44 40 42 43 43 44 44 42 40 39 37 38 39 40 42 44 46 47 49 51 51 53 51 51 53 50 50 48 46 42 36 33 35 37 37 30
47 45 45 46 44 43 43 39 37 37 38 38 39 40 40 42 45 46 48 50 52 51 53 53 50 50 49 50 50 50 48 44 35 32 35 35 38 34
44 41 39 38 38 37 36 36 36 38 38 40 41 41 43 46 48 50 51 52 53 55 53 52 50 50 49 49 49 50 49 39 32 30 33 34 36 35
39 38 37 37 35 34 35 37 38 39 40 42 44 45 47 49 49 51 52 54 56 53 53 50 48 51 50 50 51 45 40 34 32 32 34 34 37 35

GFSNE_500_spd_057.txt.gz
Wind_Speed
7 8 7 6 5 4 3 1 1 1 3 4 4 4 4 4 5 5 8 9 11 12 15 17 20 22 24 28 32 35 38 39 41 43 44 45 45 46
6 9 9 8 6 5 3 2 4 3 4 4 3 3 3 3 4 5 7 9 12 14 14 16 21 26 29 32 35 37 39 41 42 43 44 44 44 43
4 8 10 9 8 7 6 6 7 5 4 3 3 3 2 3 5 6 9 11 12 14 18 23 27 30 32 35 37 40 43 42 42 42 42 42 42 42
7 7 12 12 11 10 9 8 8 7 5 4 2 1 4 4 5 8 10 12 14 18 20 25 30 36 40 42 44 45 45 43 43 43 43 43 43 41
10 9 12 16 15 13 12 10 9 7 6 3 2 3 3 4 5 6 8 11 16 19 20 22 26 29 33 38 41 45 47 46 45 45 45 44 43 43
15 13 13 17 17 15 13 12 11 9 7 5 3 4 4 5 6 9 13 16 20 24 25 28 29 31 33 33 36 38 42 47 48 48 48 46 41 41
16 14 14 18 19 16 14 11 10 9 7 6 5 6 7 8 9 11 12 16 20 24 24 27 30 33 38 40 39 39 40 44 48 50 49 49 46 42
14 15 14 17 20 19 15 11 9 8 6 6 8 9 9 11 11 13 14 14 17 28 24 26 29 31 36 40 41 40 42 45 47 49 50 50 49 47
14 15 13 17 21 20 16 13 11 8 6 6 8 10 10 14 13 15 20 21 23 27 30 28 32 33 35 39 40 39 41 44 47 49 51 52 51 49
13 15 15 18 21 21 18 15 12 8 8 8 9 11 12 14 17 19 22 23 26 29 33 31 35 35 37 41 43 44 48 51 50 48 48 49 48 52
14 15 15 15 19 22 21 16 11 11 13 12 10 11 14 18 22 25 26 26 26 33 35 33 35 39 40 43 43 43 44 47 47 44 43 46 47 48
15 16 14 14 17 20 18 16 14 14 15 14 14 15 20 23 26 28 30 31 31 27 36 35 37 41 38 39 45 43 46 49 47 45 44 47 46 48
18 17 13 14 16 17 18 17 13 14 15 17 17 21 24 27 32 34 32 33 32 30 33 36 39 41 45 44 41 43 47 49 46 47 48 44 47 47
19 17 13 13 15 17 18 16 17 19 18 18 19 22 25 29 33 33 37 35 33 32 33 37 41 43 43 43 44 42 45 49 49 49 45 39 42 45
21 19 16 18 20 22 20 18 21 22 24 25 25 28 31 34 32 34 33 32 32 34 36 38 42 44 46 47 47 45 46 48 51 48 48 40 37 44
21 22 24 27 26 26 26 27 30 29 29 29 29 33 35 36 34 34 31 31 33 34 37 39 41 44 46 48 48 46 47 49 51 50 46 39 37 37
28 29 29 29 30 31 31 32 33 31 33 36 38 40 37 35 34 33 32 32 33 35 36 39 42 44 45 46 47 47 47 48 51 50 45 42 37 36
31 31 31 33 33 33 34 36 36 38 42 44 41 39 38 36 32 31 32 33 34 37 39 39 42 44 46 47 46 46 48 49 51 50 43 43 37 37
34 34 34 35 37 40 41 41 46 41 39 40 41 40 38 34 31 32 34 35 36 39 41 43 43 45 47 46 45 47 47 50 52 51 46 39 34 34
41 42 42 43 44 43 45 44 43 41 43 44 41 39 35 33 32 33 35 38 39 40 43 45 45 46 47 47 46 49 47 49 49 47 46 41 35 32
45 46 45 44 46 45 44 46 45 46 44 40 37 36 35 34 34 36 38 40 42 43 43 45 46 47 48 48 48 46 46 46 47 45 42 37 31 32
42 43 43 45 46 45 42 42 43 41 39 36 36 36 35 36 38 39 40 42 43 44 45 46 48 48 48 48 48 46 46 47 47 45 42 39 34 31
41 42 40 39 37 38 38 38 37 38 37 38 38 38 39 40 42 42 43 43 45 46 49 51 52 51 50 48 46 45 45 48 46 44 39 38 36 34

GFSNE_500_spd_060.txt.gz
Wind_Speed
4 4 2 1 1 3 3 3 5 6 7 9 8 6 6 6 8 8 9 12 13 13 14 17 22 26 27 30 32 34 36 38 39 39 40 41 43 42
2 5 5 4 3 2 2 3 4 5 6 6 6 4 5 6 5 6 8 10 13 15 17 20 23 27 32 35 36 37 39 40 41 42 43 44 44 43
2 6 7 6 6 5 5 6 5 5 5 5 4 4 4 4 5 6 8 9 11 12 13 17 25 28 31 33 39 40 40 41 41 43 44 44 42 40
6 5 8 9 9 8 8 8 8 5 5 4 3 2 3 4 4 5 7 9 12 16 19 21 22 25 28 32 33 34 36 38 42 45 45 44 43 40
9 9 9 12 12 11 11 10 10 9 6 4 2 1 1 1 1 4 6 8 11 13 16 22 24 26 29 30 32 35 36 39 43 44 45 45 43 42
12 12 12 14 16 14 12 11 10 9 8 5 4 3 3 3 4 5 8 10 14 20 22 25 28 26 29 32 37 39 41 42 43 45 45 47 45 43
13 14 14 15 18 17 15 15 12 10 10 9 8 8 7 6 5 8 8 10 16 20 21 24 25 26 30 33 35 38 39 40 42 45 44 43 45 46
13 15 16 16 16 19 18 14 13 13 13 11 10 10 9 10 10 11 11 13 15 23 22 22 26 27 28 32 35 36 37 39 42 46 45 42 42 45
13 14 16 16 17 20 21 18 16 15 13 12 11 12 12 13 13 14 17 19 19 23 27 23 23 25 28 32 36 38 41 43 44 45 44 44 45 46
14 15 15 16 18 20 23 20 20 17 15 14 12 13 12 12 14 18 21 23 24 25 28 25 26 26 29 34 38 39 40 39 41 44 45 45 46 45
16 16 16 16 18 19 21 22 21 18 16 15 13 12 10 12 19 22 24 27 27 27 31 27 28 27 30 34 37 38 39 38 41 43 46 48 47 42
19 18 18 18 17 17 21 24 22 20 19 17 16 13 15 17 20 24 26 28 28 27 31 26 30 31 26 32 38 39 38 38 38 40 44 47 44 41
21 21 20 19 17 17 18 21 21 22 21 20 17 18 18 19 21 23 26 28 28 29 28 28 29 31 34 34 33 37 39 36 38 41 45 49 44 42
25 25 22 20 17 16 16 18 20 19 17 18 18 18 23 24 25 26 30 31 32 29 29 30 29 33 35 37 39 36 37 36 38 41 43 47 45 41
27 27 23 23 19 17 17 17 17 18 19 20 22 28 25 23 29 32 34 35 33 33 31 29 29 33 37 38 39 40 39 36 38 41 43 47 46 42
27 26 27 26 23 22 19 20 22 24 25 27 29 25 28 34 35 36 35 37 34 32 30 28 29 34 35 38 38 41 41 40 39 40 43 47 47 42
31 30 30 29 27 25 26 29 31 32 32 33 31 31 35 40 40 37 38 38 34 29 29 31 31 33 35 36 39 40 40 41 42 43 43 45 48 39
34 33 32 32 30 30 31 33 33 34 35 34 34 38 45 41 38 41 40 37 32 29 29 31 32 34 35 35 39 42 43 43 43 43 45 46 48 40
37 35 35 35 34 33 34 34 34 35 36 40 40 43 42 42 43 43 39 36 32 30 31 33 33 34 35 38 40 43 44 45 45 45 44 46 47 42
42 42 41 39 36 37 39 39 40 40 43 45 45 46 45 46 45 41 38 34 34 33 34 36 35 38 40 41 41 43 45 44 43 43 45 46 41 40
42 45 44 43 41 42 44 45 46 46 46 46 46 47 47 45 43 39 36 35 35 36 37 38 39 42 44 44 44 44 44 42 41 42 42 42 40 38
49 43 39 35 42 43 46 49 47 47 47 47 46 47 45 40 39 37 36 37 38 40 41 42 43 44 45 46 47 45 44 43 41 41 39 40 41 39
52 49 46 45 44 44 45 47 46 46 43 43 42 41 40 38 39 39 39 40 42 44 44 44 45 47 46 46 46 46 45 40 41 39 38 36 37 39

GFSNE_500_spd_063.txt.gz
Wind_Speed
1 3 4 6 8 8 7 9 9 10 11 10 9 8 7 7 7 8 10 11 13 15 16 20 23 27 30 30 31 34 36 38 38 40 41 40 39 38
1 0 2 4 5 6 6 7 7 7 8 8 7 6 4 4 5 5 5 8 10 12 15 19 22 24 26 28 31 34 36 37 39 41 41 40 39 35
0 1 3 3 4 4 5 7 7 7 6 6 5 3 2 2 2 4 5 8 11 14 17 19 21 22 23 26 29 32 34 37 40 41 41 40 40 37
3 3 5 6 5 6 6 6 6 6 5 5 4 2 1 1 3 6 8 10 12 14 16 18 20 22 23 27 29 32 36 38 39 41 41 40 37 36
7 7 7 8 10 9 9 10 9 7 5 4 2 2 3 4 4 5 7 10 12 13 17 21 24 26 29 28 30 33 36 39 38 38 41 40 37 36
10 10 10 10 12 13 12 12 12 11 10 8 6 5 6 6 7 6 9 10 12 16 21 25 26 27 28 29 31 33 34 36 37 39 42 41 39 39
12 12 12 13 12 14 15 15 15 13 12 12 11 10 9 9 7 8 9 10 14 18 19 25 27 28 29 30 31 31 33 34 35 38 41 42 44 41
12 12 13 14 15 15 17 17 17 17 16 15 14 14 12 11 9 10 11 14 16 23 19 25 27 28 27 28 30 31 33 35 39 40 40 40 43 41
13 13 15 16 17 17 18 21 19 18 18 18 17 16 14 13 12 15 15 16 19 23 24 25 26 27 26 29 30 33 35 37 36 36 38 39 43 43
15 15 17 18 19 20 20 21 22 21 20 19 18 17 12 14 17 18 18 18 20 24 25 24 25 26 29 31 32 33 35 37 36 34 34 37 41 46
17 18 18 19 20 21 20 20 24 25 24 21 18 16 16 18 19 19 20 21 20 23 29 23 24 23 27 29 31 32 34 36 35 34 34 37 40 44
20 21 21 21 22 20 19 21 24 28 26 22 19 17 17 18 18 18 22 26 30 29 31 24 26 24 24 27 30 31 32 33 34 32 34 37 39 43
23 23 23 23 23 21 19 20 24 28 26 23 20 19 19 18 19 21 26 25 25 31 30 26 27 27 27 27 30 33 33 33 33 33 35 37 38 41
27 27 25 25 24 22 21 22 23 27 28 25 22 20 19 21 24 28 27 28 32 34 31 27 27 27 27 28 27 30 32 33 34 34 35 38 40 42
30 30 28 28 27 24 24 25 25 25 25 22 22 22 20 25 29 27 27 34 33 36 34 29 30 28 29 28 28 30 31 32 33 35 35 37 40 42
31 32 31 30 29 28 28 27 26 26 24 23 24 24 26 28 27 28 32 36 38 39 39 34 31 29 29 27 28 30 33 33 34 34 35 36 37 38
34 34 32 31 32 32 32 29 27 27 27 28 28 27 30 31 32 34 37 40 39 40 41 35 32 29 29 28 30 32 34 34 34 35 35 36 37 36
35 35 35 34 34 35 36 34 30 29 31 32 32 33 34 36 37 38 40 41 40 41 38 35 32 31 30 29 31 33 34 34 35 35 36 36 37 36
36 37 38 36 37 37 38 37 35 34 35 34 35 36 37 39 41 43 44 42 43 42 37 35 32 31 31 31 31 35 34 34 34 34 36 37 37 37
38 38 38 39 40 40 41 40 40 38 37 38 40 41 41 42 46 48 45 44 45 43 38 34 33 33 33 33 32 34 35 34 33 34 34 34 36 35
41 42 42 43 43 44 43 45 44 42 43 44 46 46 45 47 48 49 48 47 43 41 37 34 34 34 35 35 35 35 35 35 33 34 31 34 33 36
46 45 47 48 48 50 51 48 43 45 44 43 46 49 50 49 50 49 47 44 41 40 36 35 34 35 38 39 38 38 37 36 34 33 32 33 34 35
52 53 58 40 30 50 51 42 44 41 41 46 45 46 48 49 48 46 43 41 39 39 37 36 38 38 41 43 42 41 43 41 38 35 30 33 39 37

GFSNE_500_spd_069.txt.gz
Wind_Speed
8 11 12 11 9 10 10 11 13 14 12 9 7 6 5 5 6 6 7 10 12 12 18 23 27 27 29 31 31 34 36 38 38 38 39 39 39 39
9 9 11 10 9 10 10 11 11 10 9 7 6 4 3 3 4 4 5 8 9 12 18 21 23 25 29 30 30 32 35 36 38 39 39 37 38 39
5 8 9 9 9 8 8 8 9 8 7 7 5 3 2 1 1 3 6 7 10 12 16 19 22 23 26 29 29 30 33 35 38 39 39 37 38 40
3 3 7 9 9 9 10 9 9 9 8 6 5 3 3 2 3 4 6 8 9 12 16 18 21 24 26 28 29 29 31 34 37 39 38 35 35 37
4 4 5 7 10 11 12 13 11 10 11 10 9 8 6 6 7 9 9 13 13 14 17 18 21 25 27 28 31 31 32 36 37 37 36 34 33 36
7 7 8 8 9 13 15 15 16 15 13 12 12 12 11 10 11 11 12 13 16 17 21 22 24 26 27 28 30 31 32 34 36 35 34 33 34 35
11 10 10 11 12 13 16 19 19 19 18 17 16 16 16 14 14 15 16 16 20 19 22 23 26 28 27 27 28 29 30 32 35 35 34 34 34 34
16 14 13 13 15 16 17 18 21 22 22 21 20 19 21 18 17 19 18 18 19 21 19 23 27 30 30 28 27 28 28 30 32 32 32 32 32 33
20 18 16 16 17 17 18 20 20 23 25 25 24 25 24 23 22 21 20 20 20 21 20 23 29 30 31 28 26 26 27 28 28 29 30 30 31 33
23 22 20 19 19 19 19 20 21 22 25 27 26 29 26 28 25 21 20 19 19 21 21 23 27 31 33 27 26 25 24 25 27 26 28 30 31 32
25 24 23 22 22 22 21 21 22 23 25 26 29 29 27 28 25 21 21 18 19 21 22 22 27 29 30 30 25 24 23 24 24 24 26 28 30 31
27 25 25 24 26 26 24 25 23 23 25 25 25 29 32 31 28 24 22 21 22 21 23 23 28 28 29 31 25 23 23 22 22 25 26 27 30 30
27 27 27 28 30 31 28 26 25 28 26 25 25 27 32 36 33 27 26 25 24 21 22 26 26 29 32 31 27 24 22 21 23 26 29 29 28 28
30 30 31 32 33 35 34 27 28 30 28 28 27 28 31 34 35 30 28 27 28 24 24 26 28 30 30 27 27 24 22 20 22 26 29 31 27 27
35 35 36 37 38 38 36 34 32 30 30 31 31 30 32 31 33 33 31 30 29 26 26 27 30 31 32 31 30 26 23 21 22 25 28 29 27 27
39 40 41 40 41 40 39 38 36 34 34 33 34 32 32 32 33 35 34 33 31 30 32 33 33 34 34 33 31 27 24 22 22 26 27 27 25 24
44 46 42 39 41 42 42 42 41 37 35 36 37 36 34 33 35 37 36 35 34 35 37 38 36 37 37 34 32 30 25 23 23 26 26 26 26 24
45 41 40 39 38 40 42 44 44 41 38 39 39 38 38 37 38 40 39 38 39 40 40 39 39 39 38 36 35 34 29 25 25 26 27 26 26 26
42 41 40 41 39 40 42 44 45 44 44 41 40 42 43 43 43 43 43 42 43 43 41 41 40 38 39 38 38 34 30 27 28 29 30 27 27 28
35 33 36 42 41 41 43 47 47 47 46 45 44 46 48 49 49 48 48 48 46 44 44 43 43 43 41 39 38 35 29 29 29 30 32 32 32 31
39 38 36 35 38 43 45 46 47 47 48 48 47 48 51 55 56 58 55 53 49 47 48 48 48 46 46 42 36 34 31 32 32 32 34 35 34 34
46 46 42 41 36 42 45 46 47 47 48 51 50 53 54 55 60 64 68 63 56 49 51 51 49 48 46 40 33 32 33 34 35 35 35 36 36 38
52 51 50 48 47 45 44 46 50 48 46 49 55 57 58 65 62 62 87 55 49 50 55 52 48 44 43 40 34 33 34 36 39 37 38 40 41 43

GFSNE_500_spd_072.txt.gz
Wind_Speed
14 14 12 11 10 10 11 14 17 17 13 9 7 6 5 4 2 5 7 10 12 14 18 20 25 26 28 29 29 31 33 35 37 38 38 37 36 37
12 13 13 12 12 12 13 15 14 14 12 9 7 5 3 2 1 3 5 8 9 12 15 18 21 24 25 26 28 29 31 33 35 36 38 38 35 36
9 12 13 13 13 14 14 14 15 13 12 10 8 6 6 5 4 3 4 6 8 11 12 16 19 23 25 26 26 27 29 31 35 36 37 35 33 35
6 8 10 13 13 12 13 13 13 12 12 10 8 8 8 7 7 6 7 8 8 11 14 17 20 23 26 26 27 28 29 31 32 34 34 32 32 33
5 5 6 10 13 15 14 14 13 13 12 13 13 13 11 10 10 9 10 11 10 13 16 19 22 24 28 27 26 26 26 28 30 31 31 31 32 33
9 7 7 9 10 14 16 17 16 16 15 15 16 15 14 12 13 12 15 14 15 15 17 18 21 24 27 29 24 23 24 26 27 28 29 30 32 34
13 11 11 10 11 12 14 18 19 20 19 18 17 17 17 17 16 16 18 18 18 18 20 21 22 25 26 27 25 22 23 23 25 25 26 28 31 33
19 17 15 12 13 15 16 18 19 22 23 23 23 21 23 23 20 19 20 20 22 20 17 19 21 24 23 29 27 22 21 21 22 23 25 27 29 33
23 23 20 17 16 15 17 19 18 20 22 25 26 26 27 27 22 22 23 22 22 23 18 15 19 22 25 26 29 25 22 19 19 21 24 26 28 31
27 26 24 22 20 19 17 17 19 20 22 24 23 28 30 30 26 25 25 23 22 23 18 17 21 20 24 24 30 29 23 20 17 18 22 25 27 27
28 28 25 25 24 24 21 20 19 20 23 23 22 24 25 29 29 28 25 21 21 22 21 20 21 20 22 25 28 27 24 21 19 17 20 24 25 23
28 27 26 26 28 28 25 25 21 23 24 23 21 20 22 26 28 31 30 25 22 19 26 22 21 22 22 24 25 26 25 22 20 18 20 22 25 21
30 28 27 29 31 32 30 28 25 28 25 25 22 20 22 24 28 29 30 30 27 23 26 25 22 20 21 23 27 28 27 24 19 18 18 21 23 21
34 33 32 33 35 35 34 31 30 30 27 26 26 25 24 26 29 28 27 27 29 27 28 29 25 22 22 26 31 30 30 29 24 21 19 19 20 20
40 40 40 40 40 39 35 35 34 32 31 30 29 29 31 30 28 28 29 28 29 30 31 31 30 26 28 29 30 32 30 27 26 23 23 21 21 20
44 46 44 44 42 41 40 38 38 38 37 34 33 33 34 33 32 31 31 31 30 32 34 34 32 30 30 33 36 35 31 30 28 24 23 24 23 24
49 45 42 42 41 40 41 41 41 41 39 39 37 37 38 37 35 36 33 35 33 34 36 37 35 34 34 35 39 36 30 32 31 27 25 24 23 25
45 42 41 40 41 41 40 40 40 40 40 40 39 38 38 38 37 37 37 37 37 37 39 38 38 38 38 39 39 34 33 35 34 32 27 26 24 23
37 38 38 38 38 38 40 40 40 42 43 41 40 39 39 39 39 38 38 41 42 42 44 43 42 42 44 40 38 37 36 37 36 35 32 29 27 25
39 38 35 34 37 37 40 39 41 42 42 43 43 42 41 40 40 39 39 41 45 49 52 51 49 49 47 44 40 43 41 40 39 36 33 32 30 27
44 41 40 39 38 35 35 34 39 42 43 45 44 45 45 45 44 45 45 46 49 53 56 59 59 62 53 51 47 45 44 44 41 36 34 32 31 30
48 47 47 45 44 41 39 39 36 37 39 41 43 44 45 47 46 47 49 50 53 54 56 63 68 74 64 53 54 47 46 46 41 38 34 34 33 33
57 53 52 49 49 49 49 45 45 43 45 43 42 42 43 44 45 48 50 53 50 52 59 59 66 73 75 63 58 49 49 47 41 40 38 37 37 38

GFSNE_500_spd_075.txt.gz
Wind_Speed
14 12 10 9 8 9 11 14 16 15 12 8 7 6 5 4 3 3 4 5 7 10 13 16 19 23 25 26 27 27 27 29 31 32 33 32 32 33
15 14 12 10 9 10 11 14 15 14 12 10 8 7 6 5 3 1 1 3 6 8 10 14 18 22 26 27 26 25 26 26 28 30 31 31 30 32
13 14 14 13 12 11 12 12 13 12 11 9 8 7 8 7 5 3 4 4 6 8 10 14 19 21 27 28 27 25 24 25 26 26 28 29 30 32
11 12 13 14 13 13 12 12 12 12 12 11 10 11 11 10 9 7 7 6 7 9 12 15 18 21 25 27 26 23 22 22 23 23 25 28 29 32
7 9 11 13 15 15 15 15 14 15 15 15 15 15 14 13 13 11 11 10 10 12 14 17 17 19 21 25 26 22 19 20 20 21 24 26 29 31
8 7 8 9 11 15 16 16 17 16 16 17 17 17 17 17 16 14 14 14 15 15 15 15 16 18 18 19 25 22 18 19 20 20 22 24 27 29
13 11 10 9 8 11 14 18 19 20 19 19 19 18 18 19 18 16 16 16 17 16 17 15 15 17 14 18 23 25 20 18 18 17 19 22 23 25
18 17 15 13 13 13 14 16 17 19 22 23 22 22 23 21 19 16 17 19 21 21 15 19 16 17 15 14 20 25 23 18 18 17 18 21 22 22
23 21 21 20 19 17 17 17 16 17 19 21 22 26 27 28 24 22 21 21 23 25 20 16 17 17 16 13 18 21 21 18 17 15 15 17 19 19
28 27 26 25 25 24 22 19 18 17 19 20 21 23 24 26 27 26 26 26 23 23 21 15 17 17 15 13 16 17 19 20 18 18 17 19 21 21
30 29 28 28 28 29 27 25 22 20 21 20 18 20 21 22 22 21 24 25 26 22 24 17 18 17 17 15 12 15 18 21 19 18 19 21 22 24
31 30 29 30 31 31 30 29 26 25 26 22 20 18 19 21 23 23 24 22 21 24 26 25 20 20 18 14 17 15 18 20 21 18 17 18 20 22
34 32 32 31 32 33 31 29 26 31 30 24 22 22 22 24 26 25 25 22 20 21 26 27 24 26 20 17 18 20 20 19 21 22 20 17 18 21
38 37 36 36 36 36 33 31 31 31 30 27 28 27 28 29 30 29 27 25 23 23 25 25 26 28 25 22 22 23 23 21 22 21 23 22 17 18
43 42 43 41 41 40 37 34 34 32 30 30 31 33 34 33 33 32 31 29 28 27 28 28 28 29 28 27 26 27 26 24 25 24 24 25 24 20
45 45 45 44 41 40 40 39 38 36 34 34 34 35 36 37 36 38 36 34 32 31 32 32 31 31 30 29 30 31 30 27 27 26 26 25 26 24
45 45 44 42 42 41 41 40 40 39 37 37 38 38 38 39 38 39 38 38 36 34 34 34 35 35 34 34 34 34 33 32 31 27 27 27 27 27
40 39 39 39 41 41 41 41 42 42 41 39 38 37 37 36 37 38 38 37 35 37 37 36 37 37 38 39 39 39 39 37 36 34 30 29 29 30
37 33 31 32 36 37 36 37 39 39 40 38 37 36 36 35 36 38 37 36 35 36 39 41 39 39 40 42 42 45 44 44 42 39 37 33 32 31
39 34 32 33 32 32 33 34 36 39 38 39 39 38 38 38 37 37 39 39 40 41 42 43 45 44 46 49 48 46 49 49 50 49 44 40 36 35
45 42 39 38 39 38 37 35 34 36 39 39 38 38 38 39 39 39 41 41 42 43 44 45 45 48 48 51 52 53 57 58 59 56 53 47 41 36
50 48 46 45 44 43 44 43 40 39 38 39 38 39 39 39 37 37 38 40 43 44 45 47 47 54 48 41 40 47 49 54 53 55 52 52 47 39
54 52 54 51 49 49 47 48 47 45 43 42 43 43 44 46 46 44 42 42 41 42 44 47 47 46 44 44 50 55 60 59 42 48 53 49 48 40

GFSNE_500_spd_078.txt.gz
Wind_Speed
11 9 9 6 4 5 9 12 13 12 9 6 5 4 4 4 5 4 3 2 4 7 10 14 17 20 23 25 23 21 23 25 24 25 26 28 31 30
13 12 11 9 7 7 9 11 12 11 10 7 6 7 6 6 6 4 2 2 5 7 10 12 16 19 20 24 24 21 20 22 21 21 23 26 27 29
13 12 11 11 10 9 10 11 11 10 10 8 8 9 9 9 7 6 4 5 5 7 10 11 14 16 17 21 23 22 18 18 18 19 20 22 25 26
11 14 14 12 11 10 10 11 11 11 11 12 11 11 12 11 9 8 7 7 9 9 11 11 13 14 13 17 20 21 17 16 17 17 18 19 22 23
9 11 13 14 13 12 13 12 12 13 13 14 14 14 14 13 13 12 12 11 10 10 11 12 13 14 13 14 17 19 17 16 15 15 17 19 23 26
9 10 10 10 13 15 15 16 16 15 16 17 18 17 17 17 17 16 15 14 13 12 12 14 13 13 13 10 13 17 20 17 16 17 19 23 27 26
14 12 11 9 9 11 13 16 18 19 19 20 21 21 20 19 18 16 15 17 19 16 13 15 13 13 11 9 12 16 17 17 15 16 18 20 24 25
17 17 16 15 13 12 12 12 13 16 19 22 24 24 25 23 20 19 17 17 20 20 13 16 18 15 14 12 11 13 15 16 17 15 16 18 22 25
22 21 21 20 20 18 17 16 15 14 17 19 20 22 23 25 20 21 20 21 21 24 20 18 19 16 15 14 12 13 13 15 17 18 16 15 18 22
27 26 25 25 25 24 24 22 21 19 18 19 19 20 19 19 19 17 17 20 19 21 22 19 19 18 15 14 13 14 14 15 17 19 18 16 16 19
31 29 28 28 28 29 28 26 26 24 24 22 20 18 18 18 18 18 19 18 19 16 18 22 21 21 18 18 16 15 14 15 19 20 22 20 18 18
31 32 30 28 30 32 31 29 27 28 31 28 23 21 20 21 21 20 21 20 18 17 19 19 21 21 21 18 19 19 19 19 19 20 21 22 21 20
35 35 35 32 32 32 31 28 25 29 31 31 27 26 26 26 26 25 25 23 22 20 22 21 23 22 22 20 20 20 22 19 20 19 23 21 21 22
41 41 39 38 37 37 34 28 28 29 28 28 28 28 31 31 31 28 26 27 26 25 25 26 25 26 27 26 24 20 22 24 22 21 22 23 23 22
44 45 44 44 41 39 37 34 33 31 30 29 28 30 32 34 32 32 30 30 29 28 27 30 30 30 29 28 29 26 25 21 25 25 23 23 24 25
45 46 47 46 43 41 39 37 35 35 34 34 33 33 34 35 35 36 34 32 31 30 30 32 33 34 33 31 30 30 30 29 27 28 26 25 24 25
44 43 42 41 41 40 41 40 39 36 34 34 36 35 35 36 36 38 37 37 35 33 33 34 33 37 34 34 34 33 33 34 33 32 32 31 29 28
40 36 36 36 35 37 39 40 40 39 36 36 36 35 35 37 37 39 39 38 36 33 34 35 37 35 39 36 37 38 37 37 37 38 38 37 34 34
38 33 33 33 30 33 35 35 35 36 37 37 37 35 35 35 35 35 36 37 37 36 37 37 37 36 39 39 41 40 43 42 41 43 44 44 42 38
44 39 37 38 32 33 34 29 26 29 30 30 33 34 35 35 35 35 35 36 38 39 38 39 40 40 40 41 43 42 39 44 47 48 48 49 50 50
49 50 46 42 39 35 35 33 32 32 32 31 32 32 33 33 32 32 33 31 31 34 36 38 39 41 40 41 41 45 43 45 48 39 36 43 48 51
57 62 49 47 48 46 44 42 40 38 35 35 35 36 38 39 38 37 37 37 35 36 38 39 39 40 41 42 41 44 44 44 42 42 45 48 52 48
62 63 59 59 52 52 52 49 46 43 41 39 40 39 41 39 39 41 42 42 42 43 45 47 46 44 44 44 45 46 47 41 41 43 46 49 48 46

GFSNE_500_spd_081.txt.gz
Wind_Speed
7 6 4 2 0 1 4 7 9 8 6 4 4 5 4 4 4 4 3 3 6 7 9 12 15 15 18 21 22 20 19 20 21 23 27 32 33 34
8 8 6 4 3 3 5 6 8 9 8 6 5 4 5 5 5 5 5 6 8 8 10 12 15 15 16 18 21 21 19 20 21 24 28 31 32 32
10 9 8 8 7 6 7 7 8 8 7 7 7 6 6 6 7 8 9 10 7 11 12 13 14 13 13 14 18 20 20 19 21 22 25 27 28 30
10 11 10 9 10 9 8 9 9 9 10 11 10 9 9 9 10 10 11 13 14 13 15 14 14 14 14 14 15 18 18 17 16 18 22 25 28 27
11 11 12 12 11 11 11 10 11 12 12 13 13 12 12 12 12 12 14 16 17 14 14 14 15 15 15 18 14 16 18 16 15 16 17 22 26 26
9 9 11 11 13 13 13 13 14 14 14 15 15 15 15 15 16 16 16 17 18 18 15 14 13 14 14 17 13 13 15 16 14 13 14 17 21 24
10 9 9 9 10 12 13 15 16 17 17 17 19 18 19 18 18 16 16 16 19 20 19 15 15 12 15 15 16 15 14 16 16 13 14 14 16 20
15 14 14 13 13 13 13 12 12 14 17 18 20 21 23 21 20 18 18 19 20 23 16 19 16 17 13 14 15 17 15 16 17 15 14 14 14 16
19 18 18 18 18 17 18 18 17 16 16 15 16 18 19 19 16 16 16 19 22 24 24 19 18 17 16 16 16 16 18 18 17 17 15 16 15 15
25 24 22 23 22 22 23 23 23 23 22 21 18 17 15 16 16 14 15 17 17 17 17 19 21 19 20 15 18 17 17 19 20 21 20 18 16 14
30 30 28 27 27 28 27 26 25 25 27 27 24 21 19 18 17 17 19 14 16 15 17 15 18 18 20 16 17 21 19 17 20 22 22 21 20 17
33 33 32 31 31 31 30 30 26 27 30 29 25 24 24 22 23 20 20 19 18 16 19 19 19 18 16 19 16 18 20 21 20 21 22 22 22 20
37 36 35 34 34 34 33 31 27 30 29 26 26 24 23 26 27 27 24 23 21 18 21 19 22 24 22 18 20 18 20 20 22 22 25 25 24 24
42 41 39 39 38 38 37 33 32 32 30 27 25 26 27 27 29 28 25 25 28 24 23 25 24 26 27 25 24 24 21 22 23 21 19 23 24 24
44 44 44 44 43 42 41 40 37 35 33 32 31 28 29 31 30 29 28 25 25 26 26 27 29 30 30 30 28 28 28 27 24 27 26 23 22 21
43 42 42 43 41 43 43 42 41 40 39 37 36 35 34 34 34 34 32 31 28 25 28 30 31 32 33 33 31 29 30 31 31 30 31 29 29 29
47 47 44 41 41 41 39 39 41 41 42 40 38 37 37 36 35 35 35 34 31 31 32 33 31 32 32 32 30 31 32 32 33 30 34 36 33 34
57 36 41 39 37 39 38 37 38 40 41 41 39 39 38 37 37 37 36 36 35 34 34 34 34 30 29 29 34 34 33 33 33 31 30 35 35 33
59 53 39 37 39 38 36 36 37 38 38 38 39 38 38 37 36 35 35 34 34 33 33 33 33 34 31 28 33 34 36 37 39 36 36 40 40 40
64 56 55 45 43 37 40 37 36 40 39 37 38 38 37 35 33 31 32 32 32 32 31 30 31 33 33 32 33 35 34 33 36 39 38 39 39 41
61 60 53 54 46 44 41 39 40 40 41 39 37 38 35 33 31 29 29 29 30 31 31 30 33 32 32 32 31 31 34 34 33 35 34 35 34 36
56 58 60 50 49 53 49 45 44 42 42 40 39 38 37 36 35 35 32 32 33 33 33 34 34 37 35 38 39 40 39 39 41 44 41 42 43 38
66 58 60 63 63 50 51 49 50 47 46 47 45 44 45 43 42 41 39 37 34 35 35 35 38 40 42 43 45 48 48 49 49 50 53 49 48 48

GFSNE_500_spd_084.txt.gz
Wind_Speed
5 4 2 2 1 2 3 3 6 7 3 1 3 3 4 4 4 5 4 5 8 10 13 15 16 17 16 20 23 24 20 20 20 23 26 27 30 32
4 5 5 5 5 3 3 4 4 4 4 4 3 4 5 5 6 7 7 7 10 13 14 16 17 17 15 16 18 22 19 18 18 20 23 27 27 28
5 5 6 6 5 5 5 6 7 7 6 5 6 5 6 7 8 9 10 10 10 13 15 16 16 16 16 15 15 18 18 16 16 17 20 24 25 26
8 7 6 6 6 6 7 8 7 8 8 8 8 9 9 10 11 12 12 14 15 14 15 17 16 16 16 15 16 17 18 17 15 15 16 19 24 22
8 8 9 9 7 8 9 8 10 10 11 10 11 11 12 12 13 14 15 17 19 20 16 14 17 16 16 16 15 16 17 18 17 15 15 15 18 21
8 9 10 10 9 10 11 11 11 13 13 13 14 13 13 14 14 16 17 17 19 21 20 15 12 15 16 17 14 15 16 16 16 18 15 15 16 17
11 10 10 8 8 8 9 11 13 15 16 16 16 16 17 17 17 17 16 16 20 21 19 22 15 12 13 17 16 15 16 17 17 18 19 15 14 15
16 15 14 12 12 11 11 11 10 12 13 13 14 17 19 17 17 16 17 17 19 24 20 21 20 18 13 15 16 13 16 16 15 14 17 19 15 13
19 20 18 18 17 16 17 17 17 16 16 16 15 15 13 14 15 14 15 16 19 20 18 18 18 19 18 15 17 16 15 17 15 13 15 17 16 15
25 25 23 23 23 22 22 21 21 21 22 22 21 22 16 15 14 13 15 15 16 16 12 12 16 16 14 15 15 17 17 16 17 16 16 17 18 16
31 31 30 28 29 30 27 27 25 24 26 26 24 24 23 20 20 17 19 16 17 17 17 11 14 15 14 14 14 15 18 17 16 17 17 17 16 17
37 37 36 34 34 35 34 31 26 28 30 29 25 25 24 23 25 25 24 20 17 15 21 15 16 17 15 16 14 15 17 18 20 19 18 18 17 19
40 40 40 40 40 39 38 34 29 32 32 29 25 25 25 25 27 28 27 25 23 21 24 20 19 19 20 19 20 19 17 19 20 22 22 21 20 20
42 43 43 43 42 43 42 37 36 36 35 31 27 26 29 29 29 28 27 26 25 25 25 24 21 23 22 22 24 24 22 19 21 24 25 22 21 21
40 43 44 46 44 43 43 43 42 41 38 35 33 31 32 34 33 32 31 27 25 24 26 30 27 26 24 25 26 28 27 23 21 21 23 26 25 26
46 45 41 40 44 46 46 46 46 46 46 43 40 39 39 38 37 36 36 35 31 27 29 30 32 31 28 28 27 28 29 26 24 22 22 21 22 25
55 48 40 43 42 42 43 42 44 46 44 45 45 43 43 44 41 40 40 39 36 34 33 32 33 31 29 29 28 30 28 27 28 23 23 25 26 25
52 51 49 44 44 44 49 47 47 47 46 44 41 42 43 43 43 42 41 42 40 37 36 37 36 33 30 27 30 31 30 30 29 29 29 29 32 29
60 57 53 49 45 49 49 50 59 50 43 42 41 40 40 40 40 38 40 42 40 39 38 38 36 34 32 27 29 32 31 31 32 32 31 32 32 31
67 64 59 54 51 51 50 50 42 38 41 43 40 41 39 39 39 38 38 40 41 40 39 36 34 34 33 29 26 28 29 27 27 27 27 29 28 28
74 72 67 61 57 56 55 50 51 49 48 49 46 39 40 38 38 38 39 38 38 37 36 35 34 33 32 29 26 28 32 31 28 28 29 31 31 32
80 78 77 71 63 60 57 59 60 55 51 50 46 41 42 40 40 39 38 38 36 35 33 33 34 36 34 32 32 33 35 35 35 35 39 42 41 39
86 84 82 80 73 65 57 54 57 56 58 49 45 51 48 50 45 43 42 42 42 39 38 38 39 38 37 35 35 35 37 39 40 41 43 46 46 42

GFSNE_500_spd_087.txt.gz
Wind_Speed
1 2 1 3 4 4 6 6 9 9 6 4 2 4 4 5 3 4 5 7 10 13 13 16 18 18 16 16 19 21 18 19 19 21 24 24 26 26
2 2 3 2 2 2 5 6 6 6 5 5 5 7 6 6 6 7 7 9 11 13 15 18 17 18 16 14 16 18 19 17 17 18 20 23 22 25
4 4 5 4 4 4 4 4 6 7 8 8 8 6 6 8 8 9 9 10 12 14 15 17 17 16 16 14 15 14 16 17 14 15 16 20 19 20
5 6 6 6 6 6 6 6 6 7 8 8 9 10 11 10 10 11 11 12 14 15 16 17 18 17 16 15 13 16 14 16 15 13 15 15 17 16
7 8 7 8 8 8 9 7 7 9 10 11 12 12 12 12 12 14 14 15 18 19 18 16 16 18 17 18 14 13 13 11 13 13 10 11 12 14
8 9 9 10 10 11 11 11 10 11 12 13 14 14 14 14 15 14 16 18 20 21 21 17 14 16 18 18 17 13 14 11 11 11 11 10 7 9
11 10 10 8 9 10 11 12 12 13 14 15 16 17 18 17 16 15 16 19 22 22 20 20 18 16 16 16 18 14 15 14 13 12 9 10 9 8
15 15 14 13 13 12 12 11 10 11 12 11 12 13 13 12 12 13 14 15 18 22 16 17 14 17 17 14 15 16 15 15 14 12 12 10 9 9
19 19 20 19 19 18 18 16 15 15 16 16 16 17 15 13 11 13 13 15 16 17 13 14 13 13 13 15 13 14 15 13 15 15 13 11 9 9
25 25 25 25 25 24 23 21 20 20 20 20 21 22 19 20 17 15 16 15 18 18 11 11 13 12 12 13 12 12 12 12 11 13 14 15 14 10
31 31 31 30 31 32 30 28 25 25 27 26 25 25 24 22 21 20 23 19 19 21 20 15 15 17 16 16 14 14 13 15 14 12 11 12 14 14
34 36 37 36 38 39 37 34 29 31 34 31 29 26 26 25 26 25 26 26 23 22 27 19 19 19 19 19 19 16 17 18 19 16 14 13 14 14
36 37 40 40 40 41 41 39 37 37 36 36 34 30 27 28 28 29 27 24 21 20 29 25 24 24 22 22 22 21 18 19 22 23 21 18 15 15
34 38 40 42 43 44 44 43 42 41 42 39 36 31 30 33 34 33 29 25 25 22 27 27 23 26 25 24 26 24 22 22 23 26 26 23 21 19
41 39 39 43 45 45 45 45 45 45 45 46 42 37 35 36 37 38 38 33 29 27 29 31 29 29 26 25 26 29 28 26 25 25 26 26 24 22
44 42 44 43 43 44 46 45 47 49 50 49 47 45 43 44 44 45 44 41 36 31 33 35 35 33 30 31 29 30 32 29 27 24 22 24 25 24
48 45 47 49 48 50 49 49 47 47 48 48 49 50 49 47 48 50 49 48 45 40 36 37 39 38 34 31 31 34 35 32 28 25 24 25 26 24
52 49 49 49 50 51 56 54 49 50 47 46 47 49 49 49 49 50 50 49 47 46 43 40 40 38 37 34 35 37 34 31 32 29 27 25 27 27
59 59 55 54 53 54 55 50 47 45 52 58 53 53 56 52 49 51 51 49 45 45 45 44 41 38 36 36 39 36 34 33 30 28 29 33 23 26
69 66 65 61 60 59 57 55 53 51 50 50 52 53 50 57 59 59 56 50 44 43 43 42 41 40 39 37 35 35 35 34 31 29 28 30 30 26
76 75 74 73 69 67 64 62 58 55 55 55 55 52 51 54 56 49 52 54 45 40 39 39 40 42 40 39 33 33 35 34 33 33 35 31 28 22
78 80 81 79 79 78 73 69 65 63 60 58 58 56 53 50 56 47 45 44 38 40 40 41 43 42 39 37 34 32 32 34 34 35 38 36 33 31
79 82 85 86 86 84 82 77 72 69 67 66 61 60 54 51 40 30 38 43 46 43 43 45 48 49 46 43 38 35 36 36 37 37 38 40 42 40

GFSNE_500_spd_093.txt.gz
Wind_Speed
12 10 7 6 6 9 11 12 11 10 8 7 9 9 8 8 8 6 7 9 11 14 15 17 19 17 16 16 15 14 10 10 11 14 16 16 20 22
13 12 11 9 7 7 9 12 12 11 9 9 11 10 9 9 7 8 8 10 12 16 17 17 18 18 16 14 15 15 14 11 8 8 11 14 14 16
12 12 12 11 10 9 9 8 10 11 11 11 12 11 10 11 8 11 12 13 13 16 18 19 19 19 16 15 14 15 16 13 11 9 8 9 10 10
12 13 12 12 12 11 10 10 11 10 10 10 12 11 12 11 10 14 15 15 15 16 16 17 17 17 16 15 14 14 15 14 12 10 10 9 8 8
12 12 11 11 11 12 11 11 11 12 12 13 13 13 14 13 13 15 16 17 17 18 17 16 16 15 17 16 14 12 11 12 13 12 12 10 9 9
13 13 12 12 11 11 12 11 12 13 12 13 14 14 14 15 15 17 19 19 22 20 19 17 16 15 15 16 16 13 11 10 11 11 12 11 9 9
15 14 13 12 13 14 13 13 13 13 14 15 16 16 14 16 14 14 17 19 21 19 19 16 17 15 15 15 13 13 11 10 10 9 9 10 11 10
18 17 16 15 16 16 14 14 14 14 14 13 13 14 13 14 12 15 16 18 21 20 17 18 12 17 14 13 14 15 13 11 12 12 10 9 10 11
22 21 20 19 18 17 16 15 15 16 16 15 16 18 18 17 16 17 17 20 22 26 20 22 17 19 19 17 16 17 16 14 14 15 15 12 11 12
27 26 25 23 23 21 20 19 20 20 21 19 19 22 20 22 21 20 20 22 23 27 26 19 24 20 22 22 21 20 19 18 17 15 15 15 15 13
30 31 30 28 28 27 25 25 25 26 28 27 24 25 27 28 28 26 26 24 24 26 29 26 24 20 24 28 25 22 22 21 20 19 18 17 17 17
33 32 33 33 33 34 32 30 29 32 33 32 31 31 32 33 35 34 33 31 31 27 33 27 27 26 21 28 31 29 28 26 24 23 21 21 20 19
33 35 34 35 37 37 36 37 35 34 36 37 37 37 37 37 39 40 39 38 36 33 34 32 30 31 27 22 28 32 30 30 27 27 25 23 23 22
35 38 37 34 37 38 36 36 37 38 37 37 39 40 41 41 42 42 42 43 42 39 37 35 30 33 33 30 28 31 34 32 31 33 30 26 25 26
33 35 36 36 38 41 39 39 41 41 39 38 39 41 44 43 42 42 43 43 43 41 41 42 38 35 34 33 34 34 35 36 35 34 35 31 30 29
43 45 45 46 47 48 49 48 47 46 45 44 45 44 45 44 42 42 41 44 42 41 44 46 46 45 39 36 35 35 40 38 41 42 40 35 34 34
46 48 49 52 52 53 54 54 54 53 50 48 46 46 48 48 46 46 44 42 43 42 43 44 45 46 43 40 37 35 39 41 43 46 45 39 39 39
49 49 50 52 53 53 54 53 54 53 53 53 53 51 51 48 48 48 48 50 46 43 45 45 46 46 47 43 45 42 41 42 44 45 46 41 40 43
56 57 57 57 58 58 58 58 57 57 57 57 57 55 54 52 50 49 50 46 44 43 40 42 43 45 45 47 42 47 46 42 46 47 47 45 41 44
63 64 64 65 65 65 66 66 66 65 64 63 63 62 62 60 58 55 54 52 51 49 46 46 46 49 50 47 36 35 49 50 48 49 47 47 45 42
66 67 68 69 70 71 71 71 71 72 70 70 70 69 68 68 66 65 63 60 57 54 51 49 51 53 53 52 49 48 51 58 55 52 50 49 48 45
68 70 72 73 74 73 74 76 76 76 75 74 74 74 74 74 72 71 70 69 66 63 61 57 55 57 58 55 51 51 51 47 52 51 49 49 50 47
74 75 77 78 78 79 80 80 80 82 82 81 81 80 79 78 78 75 74 74 71 70 68 65 62 61 60 56 56 49 39 38 35 45 54 54 52 53

GFSNE_500_spd_096.txt.gz
Wind_Speed
10 8 7 7 8 9 11 12 10 9 8 8 9 8 7 6 6 6 7 8 11 14 17 18 18 17 14 15 16 16 16 14 14 15 16 18 20 23
11 10 9 8 6 7 8 10 11 9 8 8 8 8 7 7 7 8 10 11 13 15 16 16 18 17 14 13 13 15 15 14 14 14 14 15 15 17
13 13 12 10 9 8 8 8 9 9 8 8 9 7 7 7 7 9 11 13 13 15 16 17 17 15 14 13 12 13 14 14 14 13 13 13 13 14
13 14 12 12 12 11 9 10 9 8 8 6 7 7 6 5 7 10 12 13 14 16 16 16 15 13 14 14 13 13 13 13 13 14 13 11 11 11
13 13 13 12 14 12 11 11 11 11 11 10 9 9 9 7 8 11 15 17 18 18 18 15 15 13 14 14 14 14 13 14 14 14 15 15 12 11
13 14 14 14 14 14 14 14 13 12 11 11 11 11 11 11 10 10 11 11 14 15 15 13 13 14 14 13 14 15 14 12 12 14 15 16 16 13
17 16 16 16 16 15 15 14 15 14 13 13 13 12 10 8 7 7 10 12 13 11 14 13 13 13 13 13 13 13 14 14 12 12 13 16 17 16
19 18 18 18 18 16 15 14 14 14 13 11 11 11 9 8 8 10 12 15 18 14 12 16 12 15 15 13 14 15 15 14 15 15 14 14 15 15
24 22 19 19 19 18 17 16 16 16 15 14 13 15 14 13 12 15 16 18 20 24 19 19 18 14 16 18 16 16 16 17 16 16 16 15 14 15
28 26 24 25 21 20 21 21 22 21 22 20 19 20 19 21 19 19 20 20 20 23 23 20 23 18 19 21 21 20 18 15 16 18 16 15 15 15
32 30 30 29 27 27 26 24 25 26 26 25 24 24 25 27 27 25 26 23 22 24 27 22 25 21 18 21 22 22 22 21 18 18 20 19 18 17
34 35 33 32 31 32 31 31 29 30 31 31 30 29 30 31 33 32 30 29 29 24 32 27 24 26 21 24 24 23 23 22 21 20 20 22 22 22
36 37 35 34 34 35 34 36 33 32 33 34 34 36 36 37 38 38 38 36 32 29 33 30 26 27 25 21 25 29 27 26 24 25 25 23 23 23
38 38 37 36 37 38 39 38 37 34 32 32 33 33 35 38 40 40 39 38 37 33 33 34 29 30 30 25 24 29 33 32 30 28 29 30 28 26
34 36 38 38 40 41 41 43 42 41 38 36 36 37 39 40 41 42 40 41 39 39 38 37 35 32 33 30 28 30 32 38 40 36 34 33 33 32
34 39 40 40 41 43 42 43 44 46 44 42 42 44 44 45 45 48 47 47 42 40 41 41 42 36 32 31 29 29 30 30 36 40 36 37 37 36
43 45 44 47 50 51 52 51 52 53 54 53 52 51 51 51 50 49 49 48 47 44 43 44 45 46 44 39 35 34 30 32 37 39 39 37 38 38
50 51 53 53 52 54 56 56 55 57 57 58 57 57 56 54 52 50 51 52 52 50 45 43 44 44 43 39 36 33 32 33 38 43 41 40 38 39
51 52 52 54 55 56 56 57 56 59 60 58 59 58 57 56 55 54 54 55 53 51 48 46 47 49 47 43 42 41 35 35 38 33 33 34 36 42
56 58 59 61 61 62 64 64 64 65 67 66 65 65 66 65 64 63 62 61 61 59 55 54 53 55 54 52 47 42 45 44 42 39 42 46 46 48
61 63 63 64 66 68 69 71 72 71 73 74 72 71 72 72 71 72 71 69 68 67 64 61 62 62 62 60 58 48 47 50 50 47 47 45 42 41
67 69 70 71 72 73 74 75 76 76 77 77 77 77 77 76 75 75 74 73 73 73 72 68 67 68 69 69 65 60 55 55 55 55 49 48 42 40
69 70 72 74 76 77 78 78 79 79 81 82 82 82 82 82 81 81 79 79 78 76 75 72 71 71 71 72 72 68 64 60 59 57 52 45 44 45

GFSNE_500_spd_102.txt.gz
Wind_Speed
6 5 4 4 6 8 9 8 7 7 8 8 10 6 5 5 4 6 7 9 10 12 13 13 13 13 12 11 12 12 12 13 14 16 16 14 14 15
8 7 7 7 6 6 7 8 9 9 8 9 9 6 6 5 5 7 9 10 9 10 11 13 13 11 11 11 10 10 10 12 13 13 15 15 13 12
10 10 9 9 9 9 8 7 7 8 9 10 10 6 6 4 6 8 9 10 10 10 11 10 10 11 12 11 11 12 12 11 11 13 14 15 16 15
11 10 11 11 12 12 11 10 9 9 9 9 9 7 6 5 6 8 10 9 8 5 7 8 9 11 13 12 13 14 14 12 11 12 14 16 16 17
14 14 13 12 13 12 11 12 11 11 10 9 9 8 6 6 7 9 10 8 5 5 7 8 9 10 11 10 10 12 13 12 12 12 11 13 15 16
18 17 15 14 14 13 12 13 12 13 11 11 11 9 9 8 9 10 8 7 7 5 6 6 8 9 12 10 8 9 10 11 11 11 11 11 12 13
21 20 18 16 16 16 16 16 15 15 14 14 14 14 11 11 10 11 10 9 7 6 8 4 5 7 10 11 12 11 10 10 11 10 10 10 11 11
22 22 22 19 21 20 21 20 19 18 18 16 17 17 15 13 13 12 11 11 12 8 10 13 6 6 9 11 12 13 12 12 12 11 9 10 10 11
27 27 25 26 26 25 24 23 23 22 22 21 21 20 19 16 16 17 16 15 15 16 12 17 17 15 14 13 13 14 15 14 14 12 13 12 12 11
31 30 30 29 29 28 27 27 26 26 25 24 24 24 24 23 21 21 22 21 20 21 20 19 22 21 22 22 19 18 18 17 17 16 15 16 16 15
35 34 38 35 36 34 32 32 31 30 30 28 28 28 29 29 28 26 26 25 25 26 27 24 26 27 27 29 28 26 22 21 20 20 21 19 18 19
36 33 33 37 43 39 37 37 36 35 34 34 34 32 32 33 33 32 31 31 30 30 34 30 29 30 26 30 30 30 27 26 26 25 24 23 24 23
37 37 38 38 36 36 39 43 41 40 39 38 39 40 39 38 38 38 37 38 38 37 37 33 30 30 28 24 30 32 32 30 30 29 28 27 28 27
29 33 37 44 40 40 42 44 43 42 44 42 43 43 42 42 42 42 41 40 39 38 36 34 31 30 30 28 27 30 34 33 33 32 33 33 30 32
34 34 36 33 41 45 43 43 41 41 45 44 45 44 45 44 44 44 44 43 40 42 42 40 37 36 35 33 30 30 33 35 37 36 36 35 35 34
34 38 42 41 43 45 39 39 43 44 44 44 46 47 47 46 46 46 46 45 46 45 46 46 45 46 46 44 40 37 36 32 34 38 39 41 40 39
38 39 40 40 41 43 43 42 36 38 42 41 42 45 46 47 48 49 49 49 49 49 49 52 55 54 54 53 51 48 41 40 39 36 37 39 37 34
45 44 44 45 46 47 45 45 46 45 46 48 50 50 51 52 53 53 55 56 56 57 59 59 60 59 58 55 56 53 51 47 44 42 42 41 38 40
49 49 49 50 51 52 51 52 52 53 55 57 58 60 61 61 63 63 64 63 61 61 63 63 63 64 63 60 54 59 60 56 56 51 49 49 47 42
52 53 54 54 56 57 57 58 58 59 59 61 62 64 65 67 68 67 68 68 68 66 66 68 70 70 71 71 67 59 63 65 63 63 59 58 56 54
55 56 58 59 60 61 62 62 63 64 66 66 68 69 70 72 73 75 75 77 78 77 75 75 75 76 78 79 77 75 69 69 72 70 70 68 64 62
60 60 61 63 64 65 66 67 68 69 70 71 73 73 75 76 77 79 81 82 82 84 84 85 85 85 85 86 86 84 82 78 76 78 77 76 74 71
62 62 62 65 67 69 70 71 71 72 73 75 75 77 78 78 79 81 82 84 86 87 88 89 89 91 92 95 94 93 92 91 87 82 82 81 80 81

GFSNE_500_spd_105.txt.gz
Wind_Speed
4 3 2 3 4 3 4 5 6 7 8 6 8 8 8 8 8 9 10 11 12 12 14 15 14 13 13 12 12 10 9 12 13 14 11 8 9 11
6 6 6 5 5 6 5 6 7 8 8 11 10 10 10 9 8 9 11 11 13 13 14 14 11 10 10 11 12 11 10 9 10 12 13 13 10 8
9 9 9 9 8 8 9 8 8 9 10 12 9 10 10 9 10 11 12 12 11 13 10 9 9 9 9 9 11 11 10 9 10 11 12 11 12 12
10 11 11 11 11 11 11 11 11 12 11 12 11 9 9 10 12 13 14 12 10 8 8 7 9 9 8 8 9 9 10 10 10 10 10 12 13 13
11 12 12 12 13 12 12 13 12 13 13 12 12 10 9 11 12 14 13 11 8 7 8 8 10 10 10 9 7 7 9 9 9 8 10 11 12 13
13 13 13 14 14 14 15 14 14 13 13 14 13 11 11 13 15 15 14 8 8 7 9 9 9 11 13 13 12 10 9 9 10 9 8 9 8 8
16 16 16 16 17 18 18 18 17 16 16 16 16 15 14 14 14 16 15 12 9 6 10 9 9 10 11 10 14 16 14 11 12 10 9 9 10 10
20 18 18 20 20 21 22 21 21 21 21 20 20 19 17 15 14 15 16 16 16 12 12 14 13 12 12 12 14 12 16 15 13 13 13 12 12 12
21 21 22 22 23 24 24 24 24 25 24 24 24 24 22 20 19 19 19 18 18 20 19 19 23 20 20 20 19 20 16 19 21 17 16 15 15 16
26 24 24 24 27 28 29 28 28 27 26 28 27 27 27 27 25 25 24 24 24 24 25 22 24 25 26 28 27 26 27 22 20 22 23 20 17 17
33 32 29 30 31 31 32 32 33 33 30 30 32 31 32 32 31 30 30 29 29 31 30 30 29 29 30 32 34 30 29 27 25 22 21 23 24 23
36 35 31 33 31 29 28 29 39 39 37 36 35 37 36 36 35 34 35 35 34 34 34 33 35 34 33 35 35 34 31 28 25 26 25 25 24 24
32 32 35 37 36 34 36 34 33 33 39 42 41 41 41 41 40 37 37 40 40 40 40 37 37 37 36 33 30 31 33 33 30 27 28 26 26 27
18 20 24 25 28 31 30 34 39 37 38 40 40 41 42 45 43 44 40 42 42 43 41 41 40 38 35 33 34 31 31 32 34 35 36 34 32 29
23 25 29 32 34 34 33 33 32 36 43 42 43 43 40 43 45 45 46 45 45 46 47 44 44 41 42 37 37 39 36 36 36 39 38 39 39 36
30 31 30 31 33 36 37 36 37 37 38 40 41 42 46 46 46 47 47 47 46 48 48 47 46 46 46 47 43 41 45 44 46 44 37 39 39 40
43 40 39 39 38 39 40 39 38 40 40 43 44 45 43 45 45 46 47 48 50 49 50 51 51 51 50 50 51 52 50 51 52 47 46 41 39 39
44 44 43 45 46 47 45 45 46 47 47 47 47 47 49 49 51 54 54 55 55 55 55 56 57 57 55 54 58 54 55 56 55 52 51 48 43 43
49 47 47 46 48 51 53 53 53 53 54 55 54 54 54 55 57 58 61 62 63 64 66 66 66 66 65 62 58 65 65 62 62 62 60 59 55 50
51 53 56 54 53 55 55 55 56 56 58 59 60 60 61 62 63 64 66 67 68 69 69 71 72 73 73 73 71 66 71 73 72 71 70 69 68 66
52 53 53 53 55 56 56 57 59 61 62 63 64 65 66 68 69 70 71 73 74 75 76 78 79 80 81 81 80 78 77 76 79 80 81 81 77 73
58 60 60 61 62 63 64 65 65 66 67 67 68 69 71 73 74 75 77 78 80 81 82 82 82 83 84 87 88 88 87 88 84 84 87 88 90 88
63 64 65 65 66 67 69 70 70 71 71 72 74 74 75 76 77 77 78 80 82 83 85 85 86 86 88 87 88 89 89 90 94 96 92 94 94 94

GFSNE_500_spd_111.txt.gz
Wind_Speed
2 5 3 2 3 5 7 9 10 10 9 8 7 5 3 3 7 15 16 15 16 15 16 16 14 16 15 14 14 13 13 14 15 15 14 9 6 6
5 6 6 5 6 5 6 7 8 9 10 9 8 8 10 12 13 18 16 15 13 13 14 13 12 13 12 12 12 13 14 14 13 13 13 13 11 8
6 7 7 7 7 7 6 6 6 8 9 10 11 10 11 12 15 14 13 12 11 11 10 11 12 11 13 14 13 12 13 13 13 13 12 11 12 12
7 8 7 8 8 8 8 8 9 9 9 9 10 10 10 12 12 11 9 8 9 8 8 11 12 13 12 12 14 15 14 13 14 14 13 12 10 8
11 11 10 10 10 8 8 7 9 9 9 10 10 9 8 9 8 10 9 6 5 8 9 10 11 12 13 12 13 16 17 17 18 16 15 14 13 11
14 15 14 15 13 11 11 10 10 10 10 10 10 8 9 9 11 12 13 9 6 5 5 6 8 9 12 14 14 16 16 16 18 19 19 18 15 14
18 17 17 17 17 17 16 15 15 14 13 14 13 11 11 13 13 14 15 15 8 10 9 9 9 9 9 10 12 14 15 17 17 19 19 19 18 18
22 21 21 23 20 20 20 20 19 19 19 18 18 19 17 16 15 15 16 17 15 13 14 14 16 16 16 15 16 17 18 19 20 21 21 22 19 17
24 23 24 26 23 23 23 23 23 24 24 24 24 23 23 20 21 20 19 19 19 19 21 21 21 22 21 20 22 21 21 21 21 23 23 25 25 20
31 30 27 27 25 24 25 26 25 26 28 30 30 29 27 26 26 26 25 26 25 23 25 25 25 27 26 26 27 25 25 25 25 25 26 23 20 23
39 38 36 34 31 30 31 31 30 29 30 31 30 32 30 29 32 32 30 29 32 28 29 29 28 30 31 30 30 30 30 29 28 27 25 24 21 20
35 38 40 38 33 35 36 35 35 32 32 35 30 30 29 30 33 35 37 39 35 35 30 34 33 33 36 37 36 33 33 33 30 28 26 25 25 27
29 34 33 29 29 29 25 26 29 32 34 35 33 29 27 26 31 33 32 32 33 34 35 36 38 40 37 36 40 39 37 36 33 32 31 32 32 30
22 22 23 23 24 21 18 19 18 21 24 26 27 29 31 29 29 30 33 34 31 34 38 39 38 37 39 40 40 41 43 42 39 38 37 37 37 37
25 22 23 27 28 25 25 25 23 24 28 30 30 32 32 32 33 31 32 36 34 32 33 34 35 38 39 39 41 41 42 46 42 39 41 41 41 42
31 31 32 32 30 29 26 27 32 32 32 33 36 37 40 39 39 39 39 39 41 42 39 37 37 38 39 40 39 42 45 45 47 45 42 43 45 46
37 35 33 32 34 35 36 37 39 41 42 43 42 41 42 45 46 46 44 45 45 44 45 46 45 43 45 44 45 46 46 48 49 51 51 49 51 53
39 38 38 38 39 41 43 45 46 47 50 49 47 48 47 47 46 46 47 48 50 51 50 50 50 51 52 53 53 52 54 54 55 56 57 54 53 57
47 45 45 47 48 49 49 50 54 56 54 53 52 52 50 49 48 49 50 49 48 48 50 50 50 51 51 52 54 58 56 58 60 61 62 63 60 58
53 54 54 55 56 55 56 57 59 58 59 59 58 57 55 54 53 52 52 52 52 54 54 56 58 58 58 56 58 63 66 68 69 69 70 73 74 71
61 62 63 63 63 62 61 60 62 64 64 62 62 60 60 57 56 56 56 57 58 59 59 60 62 64 65 67 69 71 74 77 78 76 76 78 80 81
67 68 68 69 66 63 62 66 67 64 68 65 61 59 59 60 60 61 62 64 65 67 68 69 70 72 73 74 76 79 80 81 83 84 87 90 89 87
71 76 76 71 69 70 71 70 68 66 68 68 64 63 62 62 65 66 66 66 66 67 68 70 72 75 77 79 81 84 86 86 90 91 91 92 96 100

GFSNE_500_spd_114.txt.gz
Wind_Speed
6 2 3 2 3 3 4 1 2 2 1 4 5 5 6 4 5 9 8 10 10 17 16 15 16 15 15 16 16 17 17 17 17 18 19 18 17 14
7 5 5 4 5 4 1 2 3 4 3 3 5 4 4 4 8 7 5 6 11 14 15 15 13 12 12 13 13 14 15 15 15 16 17 17 17 18
8 8 7 8 7 7 6 6 7 7 6 6 5 5 7 7 5 4 6 8 11 12 13 12 12 11 11 11 12 12 12 13 13 13 14 14 14 14
9 10 9 10 11 9 7 7 7 8 7 6 5 6 7 6 4 6 7 10 10 8 6 8 9 7 8 10 10 11 13 15 14 14 12 12 12 10
12 13 13 12 11 11 10 10 8 10 9 7 6 6 4 5 7 9 8 9 8 8 7 7 6 7 7 9 11 13 13 13 15 16 16 15 15 14
15 15 17 18 16 14 13 12 12 12 11 10 7 9 9 8 8 9 10 8 8 7 10 10 9 11 12 12 12 12 13 14 16 18 17 16 15 14
19 20 21 21 19 18 17 17 17 15 15 14 12 12 11 12 12 13 14 12 13 11 10 13 16 14 14 15 15 14 16 16 16 19 20 20 21 18
19 22 25 25 23 22 20 22 22 20 21 18 17 17 15 17 17 16 17 20 18 17 16 18 18 17 19 19 19 18 18 19 19 19 17 22 23 23
24 25 27 26 24 24 25 23 23 24 24 23 22 22 21 23 24 23 22 22 22 23 22 23 23 22 25 24 23 24 25 24 23 21 21 25 26 24
33 32 33 32 30 28 28 28 27 27 27 26 27 25 26 27 30 29 28 27 25 25 26 28 32 28 28 28 29 29 29 27 26 25 24 25 27 28
34 35 36 38 38 36 34 33 32 32 33 32 31 26 26 28 27 26 31 33 31 28 33 30 34 34 32 30 31 32 31 31 31 31 30 28 29 31
38 36 35 37 38 39 40 39 38 37 37 35 35 33 30 30 31 30 28 28 30 28 32 37 37 34 36 38 37 37 36 35 34 33 33 32 31 31
31 34 32 34 37 39 40 38 36 38 37 34 27 27 27 27 28 27 27 27 27 31 31 27 29 32 34 39 37 38 35 37 36 37 36 36 36 36
31 30 30 29 31 29 29 29 28 25 24 21 20 20 21 25 27 27 28 28 28 28 30 32 33 35 36 36 39 41 38 37 37 37 37 38 37 38
31 28 26 28 26 27 28 29 30 30 27 25 26 27 29 29 31 33 33 33 32 30 30 32 34 34 35 37 36 38 42 38 35 37 37 37 38 39
29 33 35 34 32 31 33 33 31 30 29 29 31 34 35 36 37 38 40 41 42 43 45 45 44 42 41 41 39 40 40 41 42 40 39 41 42 43
36 37 38 38 39 36 34 36 36 36 37 37 38 40 40 42 44 44 43 43 44 45 46 47 48 48 48 47 49 47 48 46 46 46 45 44 47 49
43 40 39 40 42 43 41 42 41 41 42 44 45 46 46 47 46 46 45 46 45 45 47 49 50 51 51 54 52 52 51 51 52 53 51 48 47 48
46 46 45 47 48 48 49 50 50 50 51 51 52 53 52 53 54 53 51 50 51 51 52 52 52 54 55 55 58 60 57 55 54 55 55 54 54 54
52 51 53 54 54 54 55 57 58 59 59 60 61 59 57 57 60 61 62 60 58 59 59 59 60 60 62 62 60 62 64 64 64 65 65 65 67 69
55 59 60 60 60 60 61 63 65 66 67 69 68 66 65 65 68 69 68 62 62 63 65 64 66 68 69 69 69 70 72 73 74 75 76 75 75 77
65 66 65 60 64 67 68 69 71 74 74 75 74 74 73 70 69 69 69 69 68 68 69 70 70 72 73 72 73 72 72 73 76 79 81 84 86 87
67 65 68 72 72 73 73 72 76 80 80 79 79 80 73 65 63 64 70 74 70 67 69 71 73 71 70 71 73 75 78 80 81 82 84 89 92 93

GFSNE_500_spd_117.txt.gz
Wind_Speed
6 5 4 4 4 4 6 4 3 3 4 5 4 4 3 4 4 5 6 7 11 8 9 11 11 14 14 14 13 13 13 14 15 16 16 17 17 19
7 7 7 7 7 6 7 9 5 6 4 4 5 3 3 4 4 5 6 7 6 8 9 8 12 13 12 12 11 12 12 13 13 13 14 15 16 15
6 6 7 7 7 7 8 10 8 7 4 6 6 3 2 3 3 4 4 3 5 6 6 5 10 10 10 10 11 12 12 13 14 15 14 12 12 13
7 7 7 8 8 8 8 9 8 6 5 4 6 5 4 5 5 4 3 3 3 3 4 5 5 5 5 6 7 9 11 11 12 12 13 13 11 10
10 9 9 10 9 11 11 10 12 10 7 6 7 6 7 9 8 7 7 9 7 7 5 4 3 3 6 8 9 10 12 12 12 13 14 13 14 15
13 14 14 14 12 12 12 11 13 14 12 10 11 9 9 11 13 13 12 13 9 10 12 9 9 9 9 9 10 12 12 15 15 16 16 16 13 12
15 17 18 18 18 17 16 15 15 16 16 15 13 13 14 14 16 17 16 16 16 14 15 15 15 16 16 16 15 16 18 18 17 17 16 19 16 16
21 19 19 20 19 18 20 22 20 18 18 16 15 15 16 16 20 22 22 22 22 21 22 20 20 21 21 21 22 21 23 23 21 20 19 17 19 23
24 24 26 24 23 23 24 24 24 22 23 23 22 20 20 20 22 23 23 25 27 28 28 26 25 27 27 26 26 27 26 25 26 24 23 23 25 25
31 31 33 35 32 30 29 28 27 26 25 24 24 24 25 26 25 25 25 23 25 29 31 35 34 31 30 29 29 30 30 30 29 30 30 29 27 28
31 30 29 28 33 33 32 31 33 32 32 32 30 30 32 34 31 28 27 27 24 24 30 34 39 37 36 37 34 35 33 34 33 33 35 36 34 31
34 36 33 34 34 39 39 36 37 37 37 36 35 34 38 37 36 34 31 29 28 25 25 29 34 33 29 31 35 36 36 35 35 35 35 36 38 37
30 31 35 33 32 38 38 38 38 39 38 34 32 36 34 33 33 29 27 25 24 26 26 27 26 32 36 33 31 30 35 36 36 36 36 35 36 38
29 33 34 34 34 35 37 36 36 37 33 30 27 24 22 22 24 23 21 23 24 25 26 26 26 29 31 35 36 36 34 35 37 38 38 39 38 38
29 32 31 31 32 33 30 32 35 35 33 31 29 28 27 26 27 26 23 22 25 27 31 31 32 32 33 35 36 40 41 38 38 39 40 40 42 43
33 33 33 33 31 30 33 35 35 35 40 38 36 35 33 34 32 33 35 35 35 35 36 37 38 39 38 41 40 40 41 43 44 45 45 46 47 48
37 38 38 39 39 39 39 39 39 39 39 38 37 37 38 39 38 40 41 41 40 42 43 43 42 43 42 43 43 45 46 47 47 47 48 50 52 53
45 44 45 42 43 44 43 44 44 42 43 44 44 44 44 45 46 47 48 48 49 52 53 49 50 51 52 50 48 49 48 49 49 50 50 52 54 55
52 49 51 51 47 49 49 47 48 48 49 50 52 54 54 54 55 55 56 56 58 60 61 60 61 60 62 63 61 57 55 56 57 58 58 59 60 60
55 53 52 53 56 56 54 55 57 57 56 56 58 59 61 62 63 63 64 65 66 66 67 66 66 67 67 66 65 65 63 63 64 65 67 69 70 71
59 57 57 59 62 57 60 62 67 63 62 61 62 62 63 65 66 66 68 69 72 74 75 75 74 73 73 71 69 69 70 71 72 73 74 76 75 77
64 63 66 65 65 64 70 72 71 69 65 69 72 67 64 67 73 72 73 74 78 77 77 80 79 79 75 70 71 73 72 71 73 75 77 79 81 80
67 67 69 70 68 67 64 65 67 68 69 69 72 72 73 73 75 79 82 77 78 82 78 75 72 70 70 68 66 66 66 66 65 68 72 76 78 81

GFSNE_500_spd_123.txt.gz
Wind_Speed
5 5 6 5 4 4 4 3 5 7 7 6 4 4 4 3 3 3 4 4 2 2 4 4 4 5 8 8 10 12 12 12 12 13 13 12 12 12
10 9 9 8 7 7 7 6 6 6 7 6 3 4 5 4 3 2 1 1 1 2 1 1 2 5 4 5 7 7 8 8 9 11 11 12 12 10
11 11 10 9 8 8 8 8 8 7 7 7 6 5 6 6 5 5 5 2 4 5 5 4 3 2 1 2 3 4 5 7 7 7 7 9 9 9
10 11 11 11 10 9 9 8 8 8 9 9 8 8 9 7 7 8 8 6 7 7 8 10 9 8 8 7 6 5 5 7 8 7 5 16 6 8
14 13 13 14 13 13 12 11 11 10 9 9 11 13 13 11 10 10 10 10 9 11 12 14 14 13 14 14 13 11 12 13 11 11 9 8 7 11
17 17 18 18 17 17 15 15 15 14 13 13 13 14 16 17 17 16 14 14 13 13 14 15 16 17 18 18 18 19 18 17 17 17 16 14 13 15
21 19 20 25 23 21 20 18 18 18 18 18 19 21 20 21 22 21 19 19 18 18 18 19 20 20 21 21 22 22 23 22 20 19 19 17 15 15
24 22 20 20 25 23 23 20 21 20 21 22 23 24 24 22 22 24 23 22 21 21 22 23 25 26 27 27 25 25 25 27 26 24 23 22 19 18
27 27 26 25 25 23 21 21 23 26 26 27 27 26 26 26 27 28 29 30 29 25 23 24 25 26 26 29 31 30 30 31 30 30 28 27 25 24
35 30 31 30 31 29 28 28 28 29 32 33 34 33 33 33 31 32 33 35 37 37 33 29 31 30 28 29 29 30 31 34 34 33 33 33 31 30
42 39 33 33 38 38 34 31 34 31 32 31 32 34 34 39 40 38 38 37 40 43 43 39 32 35 35 34 32 30 29 25 27 29 29 31 34 33
39 37 38 37 32 31 33 32 32 32 35 34 34 37 36 37 37 38 38 39 40 41 46 47 46 39 33 31 30 29 29 31 29 27 26 27 28 29
41 38 32 28 26 30 33 31 31 34 34 36 37 35 34 36 37 40 39 39 39 38 38 40 38 32 28 28 28 28 28 28 29 29 31 29 30 31
35 34 31 35 33 30 29 30 31 33 34 35 36 37 37 36 38 38 38 36 33 33 32 33 33 32 31 30 30 31 30 30 30 32 31 31 33 34
29 25 23 25 26 27 26 31 31 32 32 32 33 35 35 34 33 34 33 33 35 35 37 36 36 37 37 36 35 38 38 36 35 33 35 39 39 40
24 22 23 25 26 29 31 33 32 33 34 34 35 37 39 38 37 37 40 42 43 42 42 42 42 45 43 47 51 49 47 44 43 43 43 45 48 49
31 30 33 34 35 38 39 39 39 39 39 40 41 41 42 43 44 46 46 44 44 45 47 47 48 49 52 54 52 51 50 52 52 52 54 55 54 55
39 39 39 42 44 46 49 49 49 50 51 53 51 50 48 48 47 49 49 47 48 50 52 52 53 54 54 55 56 57 58 58 60 61 62 63 63 63
45 49 47 53 51 54 57 58 57 55 54 56 58 55 52 54 56 56 55 54 54 55 56 59 61 62 63 63 67 67 67 65 66 68 70 68 68 67
52 54 52 59 59 54 61 61 61 57 56 60 62 59 57 55 57 57 57 58 61 65 65 65 69 68 69 67 67 72 74 73 69 68 69 71 71 71
55 57 54 63 54 59 59 57 60 62 58 65 62 64 68 64 64 64 64 62 65 68 69 67 66 67 69 73 77 76 74 73 72 72 73 72 71 70
57 59 60 62 64 63 61 63 64 63 61 64 68 69 65 65 68 67 66 69 73 73 74 74 77 77 76 75 77 73 71 70 71 71 68 69 69 68
58 60 61 63 63 64 65 68 68 70 74 75 75 78 76 66 63 66 67 68 67 66 68 71 71 68 66 65 65 62 60 62 63 61 61 60 57 56

GFSNE_500_spd_129.txt.gz
Wind_Speed
5 5 5 5 6 7 8 8 7 6 4 7 5 7 6 5 11 11 7 8 9 8 8 7 6 7 7 8 11 11 12 13 15 14 12 15 15 12
7 8 7 6 7 8 10 10 11 9 7 6 6 6 4 4 8 8 8 7 8 8 8 7 7 7 8 8 9 11 12 11 12 12 14 15 17 14
9 10 10 8 7 8 9 10 11 11 10 9 6 7 9 8 8 9 10 11 10 10 10 10 10 10 10 11 12 12 11 11 12 12 12 14 14 14
12 11 10 11 9 10 9 11 12 12 12 11 8 8 10 10 11 9 13 13 14 14 14 15 15 16 16 16 16 17 18 17 16 17 17 17 17 16
16 15 15 14 14 15 15 15 15 15 15 15 15 14 14 14 14 13 13 15 16 17 17 17 18 19 20 20 22 23 23 23 23 22 23 23 22 21
20 20 20 19 20 21 21 21 20 20 20 19 19 19 18 17 17 18 19 20 21 22 22 22 22 22 22 23 23 24 25 27 28 29 29 29 28 26
24 25 25 24 24 23 24 24 24 26 23 24 23 21 19 18 21 20 21 22 23 23 24 25 26 27 27 28 28 29 30 31 31 31 32 32 32 32
28 28 28 28 27 26 27 27 27 25 27 27 28 25 18 27 28 25 23 22 24 27 26 28 28 30 31 32 32 32 33 33 33 33 31 32 35 35
31 33 34 32 31 30 30 32 31 29 30 32 31 31 29 29 31 32 29 30 29 29 32 28 33 33 33 35 36 38 39 39 38 39 39 36 34 33
32 34 33 37 36 36 36 36 35 36 37 38 36 36 32 32 35 33 34 32 32 32 34 36 35 35 36 35 38 41 44 44 42 42 40 39 39 38
35 37 39 36 33 36 36 38 40 39 41 41 44 45 44 44 42 43 43 40 37 33 33 35 30 35 39 40 45 43 45 46 46 44 40 40 37 36
34 38 40 38 39 38 36 39 42 39 41 46 51 48 47 48 49 45 43 41 40 45 39 45 46 39 39 38 40 43 43 40 38 37 35 35 35 36
35 38 39 44 40 45 43 43 44 47 49 52 56 58 56 56 49 44 43 42 43 47 44 47 47 46 44 42 35 40 38 38 35 34 35 36 37 36
39 39 44 47 48 48 47 51 56 53 58 63 60 58 53 44 45 48 43 40 43 43 44 45 46 43 45 45 42 34 41 37 37 38 40 41 41 42
36 36 38 46 49 48 53 55 59 56 54 58 55 50 45 47 40 37 35 35 39 40 43 44 42 43 46 47 50 42 45 43 46 47 46 47 48 48
37 39 40 41 44 45 36 44 40 38 41 41 42 43 42 42 41 34 35 40 43 43 44 45 47 48 48 50 53 53 53 54 53 54 55 55 54 55
23 23 23 25 31 33 33 35 35 36 36 35 35 34 35 38 38 41 43 45 49 52 50 52 56 54 56 55 57 58 58 59 60 60 60 62 62 64
30 28 29 29 31 29 27 30 27 38 36 38 42 44 46 46 49 48 50 54 58 57 58 54 53 60 63 63 64 62 60 63 65 65 66 67 69 69
39 39 39 44 45 46 38 41 47 47 51 55 50 52 46 46 44 47 49 49 49 48 48 53 60 57 55 61 60 61 66 71 72 72 74 76 77 78
47 45 46 49 49 51 49 54 57 55 58 61 58 55 51 57 65 63 61 68 69 65 63 60 67 71 70 72 68 69 66 66 70 72 75 79 80 82
47 48 47 49 52 53 54 54 56 58 56 56 59 60 62 64 65 70 68 64 65 66 65 60 66 71 71 70 70 66 63 63 62 61 60 61 60 61
38 39 41 42 44 46 46 48 50 49 50 51 52 53 54 56 58 59 61 62 62 62 59 60 62 61 59 58 58 56 55 55 58 59 61 62 61 58
40 42 44 46 47 48 49 51 53 54 54 56 58 59 61 63 63 65 66 67 66 63 61 58 55 54 54 55 55 55 54 53 52 51 52 52 50 50

GFSNE_500_spd_132.txt.gz
Wind_Speed
5 2 2 4 4 6 5 7 9 8 8 10 10 8 9 8 7 4 6 6 7 5 6 6 7 7 8 9 10 11 13 15 15 14 16 18 17 11
6 5 6 6 8 8 9 9 8 9 9 8 7 9 9 8 8 8 8 8 8 8 7 6 6 8 9 10 10 10 10 10 12 13 14 15 17 17
10 10 9 9 8 8 8 7 8 8 9 10 12 11 9 9 8 12 11 12 13 13 14 15 14 13 13 14 14 15 14 13 13 13 15 16 16 16
13 11 11 11 10 11 10 11 9 10 11 12 12 14 13 13 12 14 13 13 15 16 16 16 17 18 18 18 18 17 17 16 17 18 17 18 18 20
18 15 15 16 14 15 15 15 15 15 14 11 17 17 17 15 16 18 17 17 17 18 19 21 22 22 22 22 21 21 21 22 23 24 24 24 24 23
20 20 20 20 20 20 21 21 20 20 21 21 21 23 20 20 16 23 20 20 22 19 22 23 24 23 24 25 26 26 26 26 25 25 25 26 28 29
23 25 24 24 25 25 25 25 26 25 24 26 25 25 24 22 21 28 23 21 24 20 23 23 27 28 27 28 27 27 28 28 29 31 29 28 28 28
27 27 28 27 27 27 28 30 29 28 27 25 25 27 28 27 27 28 32 24 27 25 25 25 31 34 35 33 32 33 33 34 34 34 34 35 35 33
30 31 31 31 30 31 31 31 30 29 32 32 30 30 31 32 33 33 34 35 30 29 32 31 33 36 37 36 40 40 40 40 39 39 39 40 41 40
33 34 36 34 31 33 33 34 36 34 36 35 31 33 31 33 34 36 36 38 37 40 39 40 32 32 40 38 33 35 40 42 45 45 44 43 42 39
33 35 37 41 39 35 35 38 35 32 35 39 38 39 41 41 43 45 43 44 44 49 47 49 48 37 39 41 41 44 45 45 45 45 43 42 43 39
39 40 40 42 37 38 39 37 37 37 39 40 46 44 41 44 47 48 48 53 54 55 53 51 52 49 45 46 48 48 50 46 45 44 42 40 38 39
43 40 42 41 41 41 40 40 37 40 46 48 49 50 50 53 54 57 59 59 58 60 55 48 47 48 47 49 39 37 41 48 44 41 43 42 41 39
38 35 33 38 44 43 43 46 46 49 50 50 49 54 60 59 57 61 65 59 56 46 49 39 37 40 45 46 47 36 32 40 42 41 41 41 43 45
29 26 28 36 41 42 42 42 45 49 51 52 54 53 49 47 50 52 51 50 44 46 45 40 35 42 42 37 46 44 41 37 45 46 45 49 51 50
32 30 30 33 36 37 41 43 47 51 48 46 43 42 43 38 38 39 40 35 42 44 49 47 47 46 47 48 51 51 50 50 48 51 54 54 55 55
37 38 36 34 34 32 31 32 31 35 35 36 36 38 40 35 38 47 48 49 50 48 47 49 52 51 53 54 56 59 59 57 58 60 59 60 61 61
38 39 38 39 38 38 32 32 34 36 38 40 43 41 41 42 45 43 48 47 47 48 51 52 51 53 55 60 59 55 54 55 57 59 59 59 53 53
43 45 45 47 46 48 51 55 53 47 45 43 45 49 52 58 60 62 62 61 65 58 59 64 67 68 65 64 69 67 67 66 65 70 72 68 66 65
41 44 45 46 48 48 51 49 48 52 56 57 57 58 59 57 54 53 54 57 60 61 65 69 70 73 75 70 65 63 59 60 64 67 65 67 71 71
33 34 34 35 37 38 38 40 42 44 45 47 49 50 52 53 53 53 54 55 56 57 58 59 62 62 62 62 61 59 58 60 61 60 58 56 56 55
33 34 34 36 37 39 41 45 47 49 50 52 54 55 57 59 60 61 61 62 63 64 64 63 61 60 61 60 59 58 55 54 54 52 53 54 54 54
37 40 42 44 46 47 49 49 50 52 52 53 56 58 59 61 62 62 62 61 61 61 60 60 58 56 56 55 54 54 53 53 53 51 51 50 50 50

GFSNE_500_spd_135.txt.gz
Wind_Speed
5 5 4 4 4 4 6 8 8 7 9 8 10 11 13 11 10 8 7 8 7 6 6 6 6 6 7 8 9 9 8 8 9 11 12 13 13 12
7 8 9 8 8 8 6 9 8 7 3 6 9 9 6 11 10 9 9 9 11 10 9 7 8 10 10 11 11 11 11 11 10 11 11 13 13 13
9 11 12 13 12 11 11 9 8 10 9 6 8 7 8 10 12 12 9 11 10 12 12 12 11 11 12 13 14 15 15 15 14 13 13 13 13 14
12 12 11 13 13 11 12 12 11 12 13 11 11 12 9 11 15 19 15 12 14 15 15 15 15 16 17 17 16 16 17 16 16 16 16 17 17 18
14 15 15 15 16 15 15 16 18 18 19 20 19 18 15 17 19 21 25 13 15 18 21 19 19 20 21 21 21 20 22 22 21 21 21 21 21 22
15 15 17 18 19 20 20 21 21 23 22 24 24 21 21 21 21 23 26 13 16 20 19 21 21 21 22 24 25 26 26 25 27 27 26 26 25 24
21 21 21 22 22 24 23 24 24 24 25 24 25 24 25 24 22 23 26 28 22 23 21 25 28 24 26 28 30 30 30 30 31 31 32 31 32 32
24 26 26 26 26 26 26 27 26 26 26 26 26 24 26 27 26 27 26 27 27 25 21 27 34 35 31 32 35 37 33 34 37 37 37 37 35 35
26 27 33 32 30 30 31 30 29 30 31 29 30 31 30 30 29 30 28 28 25 25 25 25 32 38 44 42 38 39 41 39 36 34 33 36 39 40
28 30 32 32 35 31 33 35 31 30 32 34 34 30 32 32 33 33 33 35 34 36 34 34 36 42 45 47 49 49 47 47 46 45 44 43 42 40
33 34 33 32 34 37 39 40 39 43 41 39 38 36 37 35 38 37 40 40 40 40 43 44 45 49 52 53 54 55 52 51 52 53 54 51 46 42
35 35 38 41 43 45 45 42 41 40 38 39 43 46 43 43 44 46 47 46 47 51 53 55 54 56 56 56 56 52 53 56 54 54 49 46 42 40
36 37 39 37 37 37 41 42 39 40 42 41 43 45 44 45 48 48 49 53 55 60 57 58 58 54 55 53 51 52 48 51 41 41 36 34 38 35
27 28 28 26 30 35 35 33 36 41 44 44 45 48 45 47 50 52 54 58 55 49 48 49 46 43 42 47 49 44 44 41 46 46 49 37 39 40
29 30 31 29 32 33 37 35 34 38 40 44 46 49 50 52 56 55 53 48 44 37 40 44 42 43 48 50 45 47 44 45 48 53 52 50 49 47
30 31 33 36 34 35 38 37 38 40 41 40 41 43 44 44 42 42 41 42 44 46 41 38 43 47 49 50 51 54 54 55 55 57 54 48 49 52
36 37 37 38 39 40 39 41 43 42 43 46 42 43 43 42 45 45 45 49 51 48 46 41 44 48 52 49 48 50 49 45 50 53 54 50 48 50
36 37 39 39 40 42 45 48 49 47 46 45 46 48 51 53 52 54 54 54 57 58 60 65 68 63 59 60 64 63 65 67 69 73 68 66 69 69
39 38 38 40 42 43 44 45 47 49 49 47 48 46 47 49 52 53 56 53 52 53 51 50 50 52 53 55 57 58 57 56 58 55 55 56 55 54
35 33 33 33 35 36 37 37 38 38 39 40 42 44 46 48 49 50 52 54 55 55 56 56 58 58 58 57 58 59 59 59 57 56 55 53 54 55
32 33 34 34 34 36 36 38 40 42 45 47 49 50 52 53 54 55 56 57 58 59 59 60 60 60 61 59 57 55 54 54 54 54 53 52 52 53
32 31 31 32 35 39 42 45 47 47 48 50 51 52 53 54 55 56 57 57 58 59 58 58 58 57 56 56 56 56 54 52 51 51 51 50 50 51
33 36 38 40 40 41 43 45 46 46 46 46 47 50 51 53 54 54 54 55 56 56 56 56 55 56 55 54 54 53 52 52 51 50 50 49 49 50

GFSNE_500_spd_138.txt.gz
Wind_Speed
2 2 3 6 8 9 12 11 10 7 6 7 5 5 3 4 6 5 6 5 6 6 6 6 4 6 7 8 9 9 9 9 10 9 9 8 6 6
5 5 6 6 9 9 9 10 10 6 7 8 9 10 11 10 9 8 10 10 11 9 8 9 10 9 8 9 9 10 11 12 12 12 12 11 12 12
8 8 9 7 7 10 11 9 10 11 10 11 10 10 12 15 15 14 13 15 16 15 13 13 12 13 12 11 12 13 13 12 13 14 16 16 15 15
9 10 11 12 10 10 11 12 12 12 14 14 15 16 17 19 20 19 16 18 23 21 20 18 18 17 18 19 16 14 14 15 16 18 18 18 19 21
11 11 13 14 15 13 14 16 17 16 17 20 19 18 18 18 21 20 20 19 20 22 22 21 23 21 18 18 20 20 19 19 19 21 22 22 23 22
15 16 17 17 17 18 20 20 20 21 22 22 21 21 21 21 19 20 21 19 21 24 24 21 20 24 21 20 21 23 24 26 27 28 27 26 27 28
19 20 20 21 22 23 24 24 23 23 24 24 26 25 24 23 22 22 22 25 26 26 26 25 25 27 25 27 26 27 27 30 32 31 30 33 36 36
22 22 21 23 25 26 27 29 28 28 29 29 30 29 28 29 26 24 24 26 27 27 27 28 31 30 30 30 33 35 38 39 36 36 38 40 40 38
23 26 29 26 23 26 30 31 31 31 30 31 30 32 32 33 36 36 34 31 27 28 29 30 32 35 40 41 41 42 46 47 46 48 47 44 45 43
28 30 30 33 32 35 34 31 31 32 33 35 38 39 37 37 39 36 35 35 32 32 34 36 42 46 45 44 46 47 51 53 53 52 54 55 51 50
32 31 31 31 32 35 38 38 38 39 42 43 42 44 44 45 41 42 42 42 43 43 43 42 43 46 48 50 53 58 56 54 53 51 53 55 58 57
35 34 34 33 32 36 37 40 41 38 40 45 45 44 43 41 44 43 44 45 45 46 47 49 48 50 53 58 59 56 56 49 49 51 53 55 57 48
37 34 36 36 35 37 36 34 34 35 36 37 35 38 41 42 41 44 49 50 46 50 53 53 52 56 60 52 49 48 49 45 47 51 50 49 51 50
31 30 30 30 31 30 29 31 32 31 34 33 35 36 43 45 47 50 50 51 52 54 58 62 59 55 48 42 46 46 46 43 45 48 50 56 58 55
32 32 31 30 29 30 33 35 34 35 36 36 36 37 38 42 44 45 46 47 48 48 51 53 52 48 43 46 47 48 48 53 54 52 51 50 51 50
29 32 33 34 35 36 38 39 40 40 40 40 39 41 43 45 45 47 47 44 45 44 47 52 55 56 52 52 52 57 56 55 57 58 53 47 47 46
36 38 38 38 39 39 40 42 43 42 42 43 44 46 47 47 49 49 51 54 56 59 58 57 58 61 67 70 67 65 65 67 66 62 63 60 64 68
36 37 39 41 42 43 44 44 43 44 43 43 43 43 44 43 44 44 44 45 46 47 48 51 53 55 55 55 55 55 54 55 55 56 57 57 57 55
41 40 42 43 43 42 39 38 37 37 38 39 40 40 41 41 44 46 49 51 53 54 55 57 57 58 58 60 61 60 60 60 60 60 60 61 59 59
43 41 42 41 38 37 37 36 36 36 37 38 40 43 46 48 49 51 52 54 55 57 57 58 59 60 59 58 58 58 57 57 57 57 57 56 55 56
37 36 36 36 38 37 35 35 37 40 43 45 46 47 49 51 52 52 53 54 55 56 57 58 58 58 58 58 58 56 55 55 55 55 54 54 54 54
34 35 37 36 35 36 40 42 43 44 45 47 49 49 49 49 51 52 53 53 54 55 56 57 57 56 56 55 54 53 52 52 53 53 52 51 51 51
37 36 35 35 39 41 41 43 45 47 48 48 48 47 48 48 49 51 53 54 53 53 53 54 54 54 55 54 52 49 47 45 43 45 46 46 45 46